Wetterdaten: Dienstag, 23.12.2014
Datum Zeit Temp. Aussen +5cm Feuchte Auss Luftdruck Regen Sonnenschein Regendauer Solar Windben
23.12.2014 00:00 11,7 C 10,0 C 86 % 1017,5 hPa 0,0 l/m 0 min 0 min 0 W/m 41,8 km/h (6 Bft)
23.12.2014 00:02 11,7 C 10,0 C 86 % 1017,5 hPa 0,0 l/m 0 min 0 min 0 W/m 46,0 km/h (6 Bft)
23.12.2014 00:05 11,7 C 10,0 C 86 % 1017,5 hPa 0,0 l/m 0 min 0 min 0 W/m 39,7 km/h (6 Bft)
23.12.2014 00:06 11,7 C 10,0 C 86 % 1017,6 hPa 0,0 l/m 0 min 0 min 0 W/m 39,7 km/h (6 Bft)
23.12.2014 00:08 11,7 C 10,0 C 87 % 1017,6 hPa 0,0 l/m 0 min 0 min 0 W/m 39,7 km/h (6 Bft)
23.12.2014 00:10 11,7 C 10,0 C 87 % 1017,6 hPa 0,0 l/m 0 min 0 min 0 W/m 29,3 km/h (5 Bft)
23.12.2014 00:12 11,7 C 10,0 C 87 % 1017,6 hPa 0,0 l/m 0 min 0 min 0 W/m 33,5 km/h (5 Bft)
23.12.2014 00:14 11,7 C 10,0 C 87 % 1017,5 hPa 0,0 l/m 0 min 0 min 0 W/m 29,3 km/h (5 Bft)
23.12.2014 00:16 11,7 C 10,0 C 87 % 1017,5 hPa 0,0 l/m 0 min 0 min 0 W/m 37,7 km/h (5 Bft)
23.12.2014 00:18 11,7 C 10,0 C 87 % 1017,7 hPa 0,0 l/m 0 min 0 min 0 W/m 46,0 km/h (6 Bft)
23.12.2014 00:20 11,7 C 10,0 C 87 % 1017,7 hPa 0,0 l/m 0 min 0 min 0 W/m 29,3 km/h (5 Bft)
23.12.2014 00:22 11,7 C 10,0 C 87 % 1017,6 hPa 0,0 l/m 0 min 0 min 0 W/m 50,2 km/h (7 Bft)
23.12.2014 00:24 11,7 C 10,0 C 87 % 1017,9 hPa 0,0 l/m 0 min 0 min 0 W/m 50,2 km/h (7 Bft)
23.12.2014 00:26 11,7 C 10,0 C 87 % 1017,6 hPa 0,0 l/m 0 min 0 min 0 W/m 54,4 km/h (7 Bft)
23.12.2014 00:28 11,7 C 10,0 C 87 % 1017,7 hPa 0,0 l/m 0 min 0 min 0 W/m 64,4 km/h (8 Bft)
23.12.2014 00:30 11,7 C 10,0 C 86 % 1017,7 hPa 0,0 l/m 0 min 0 min 0 W/m 43,9 km/h (6 Bft)
23.12.2014 00:32 11,7 C 10,0 C 86 % 1017,5 hPa 0,0 l/m 0 min 0 min 0 W/m 39,7 km/h (6 Bft)
23.12.2014 00:34 11,7 C 10,0 C 86 % 1017,5 hPa 0,0 l/m 0 min 0 min 0 W/m 46,0 km/h (6 Bft)
23.12.2014 00:36 11,7 C 10,0 C 85 % 1017,5 hPa 0,0 l/m 0 min 0 min 0 W/m 37,7 km/h (5 Bft)
23.12.2014 00:38 11,7 C 10,0 C 85 % 1017,6 hPa 0,0 l/m 0 min 0 min 0 W/m 39,7 km/h (6 Bft)
23.12.2014 00:40 11,7 C 10,0 C 85 % 1017,5 hPa 0,0 l/m 0 min 0 min 0 W/m 50,2 km/h (7 Bft)
23.12.2014 00:42 11,7 C 10,0 C 85 % 1017,5 hPa 0,0 l/m 0 min 0 min 0 W/m 43,9 km/h (6 Bft)
23.12.2014 00:44 11,7 C 10,0 C 85 % 1017,5 hPa 0,0 l/m 0 min 0 min 0 W/m 37,7 km/h (5 Bft)
23.12.2014 00:46 11,7 C 10,0 C 85 % 1017,5 hPa 0,0 l/m 0 min 0 min 0 W/m 39,7 km/h (6 Bft)
23.12.2014 00:48 11,7 C 10,0 C 85 % 1017,7 hPa 0,0 l/m 0 min 0 min 0 W/m 41,8 km/h (6 Bft)
23.12.2014 00:50 11,7 C 10,0 C 85 % 1017,6 hPa 0,0 l/m 0 min 0 min 0 W/m 46,0 km/h (6 Bft)
23.12.2014 00:52 11,7 C 10,0 C 85 % 1017,5 hPa 0,0 l/m 0 min 0 min 0 W/m 37,7 km/h (5 Bft)
23.12.2014 00:54 11,7 C 10,0 C 84 % 1017,6 hPa 0,0 l/m 0 min 0 min 0 W/m 46,0 km/h (6 Bft)
23.12.2014 00:56 11,7 C 10,0 C 84 % 1017,5 hPa 0,0 l/m 0 min 0 min 0 W/m 46,0 km/h (6 Bft)
23.12.2014 00:58 11,7 C 10,0 C 84 % 1017,6 hPa 0,0 l/m 0 min 0 min 0 W/m 35,6 km/h (5 Bft)
23.12.2014 01:00 11,7 C 10,0 C 84 % 1017,6 hPa 0,0 l/m 0 min 0 min 0 W/m 43,9 km/h (6 Bft)
23.12.2014 01:02 11,7 C 10,0 C 85 % 1017,6 hPa 0,0 l/m 0 min 0 min 0 W/m 35,6 km/h (5 Bft)
23.12.2014 01:04 11,7 C 10,0 C 85 % 1017,8 hPa 0,0 l/m 0 min 0 min 0 W/m 35,6 km/h (5 Bft)
23.12.2014 01:06 11,7 C 10,0 C 84 % 1017,6 hPa 0,0 l/m 0 min 0 min 0 W/m 37,7 km/h (5 Bft)
23.12.2014 01:08 11,7 C 10,0 C 85 % 1017,9 hPa 0,0 l/m 0 min 0 min 0 W/m 41,8 km/h (6 Bft)
23.12.2014 01:10 11,7 C 10,0 C 85 % 1017,7 hPa 0,0 l/m 0 min 0 min 0 W/m 41,8 km/h (6 Bft)
23.12.2014 01:12 11,7 C 10,0 C 85 % 1017,7 hPa 0,0 l/m 0 min 0 min 0 W/m 31,4 km/h (5 Bft)
23.12.2014 01:14 11,7 C 10,0 C 85 % 1017,6 hPa 0,0 l/m 0 min 0 min 0 W/m 48,1 km/h (6 Bft)
23.12.2014 01:16 11,7 C 10,0 C 85 % 1017,7 hPa 0,0 l/m 0 min 0 min 0 W/m 29,3 km/h (5 Bft)
23.12.2014 01:18 11,7 C 10,0 C 85 % 1017,6 hPa 0,0 l/m 0 min 0 min 0 W/m 39,7 km/h (6 Bft)
23.12.2014 01:20 11,7 C 10,0 C 86 % 1017,7 hPa 0,0 l/m 0 min 0 min 0 W/m 39,7 km/h (6 Bft)
23.12.2014 01:22 11,6 C 10,0 C 86 % 1017,8 hPa 0,0 l/m 0 min 0 min 0 W/m 33,5 km/h (5 Bft)
23.12.2014 01:24 11,6 C 10,0 C 86 % 1017,7 hPa 0,0 l/m 0 min 0 min 0 W/m 35,6 km/h (5 Bft)
23.12.2014 01:26 11,6 C 10,0 C 86 % 1017,8 hPa 0,0 l/m 0 min 0 min 0 W/m 54,4 km/h (7 Bft)
23.12.2014 01:28 11,6 C 10,0 C 86 % 1017,9 hPa 0,0 l/m 0 min 0 min 0 W/m 54,4 km/h (7 Bft)
23.12.2014 01:30 11,6 C 10,0 C 86 % 1017,8 hPa 0,0 l/m 0 min 0 min 0 W/m 43,9 km/h (6 Bft)
23.12.2014 01:32 11,6 C 10,0 C 86 % 1018,0 hPa 0,0 l/m 0 min 0 min 0 W/m 60,7 km/h (7 Bft)
23.12.2014 01:34 11,6 C 10,0 C 86 % 1017,9 hPa 0,0 l/m 0 min 0 min 0 W/m 56,5 km/h (7 Bft)
23.12.2014 01:36 11,6 C 10,0 C 86 % 1018,0 hPa 0,0 l/m 0 min 0 min 0 W/m 43,9 km/h (6 Bft)
23.12.2014 01:38 11,6 C 10,0 C 86 % 1018,0 hPa 0,0 l/m 0 min 0 min 0 W/m 39,7 km/h (6 Bft)
23.12.2014 01:40 11,6 C 10,0 C 86 % 1018,0 hPa 0,0 l/m 0 min 0 min 0 W/m 48,1 km/h (6 Bft)
23.12.2014 01:42 11,6 C 10,0 C 86 % 1018,0 hPa 0,0 l/m 0 min 0 min 0 W/m 41,8 km/h (6 Bft)
23.12.2014 01:44 11,6 C 10,0 C 86 % 1018,0 hPa 0,0 l/m 0 min 0 min 0 W/m 35,6 km/h (5 Bft)
23.12.2014 01:46 11,5 C 10,0 C 86 % 1018,3 hPa 0,0 l/m 0 min 0 min 0 W/m 41,8 km/h (6 Bft)
23.12.2014 01:48 11,5 C 10,0 C 85 % 1018,0 hPa 0,0 l/m 0 min 0 min 0 W/m 43,9 km/h (6 Bft)
23.12.2014 01:50 11,5 C 10,0 C 85 % 1018,0 hPa 0,0 l/m 0 min 0 min 0 W/m 41,8 km/h (6 Bft)
23.12.2014 01:52 11,5 C 10,0 C 85 % 1018,1 hPa 0,0 l/m 0 min 0 min 0 W/m 54,4 km/h (7 Bft)
23.12.2014 01:54 11,5 C 10,0 C 85 % 1018,0 hPa 0,0 l/m 0 min 0 min 0 W/m 39,7 km/h (6 Bft)
23.12.2014 01:56 11,5 C 10,0 C 85 % 1018,0 hPa 0,0 l/m 0 min 0 min 0 W/m 35,6 km/h (5 Bft)
23.12.2014 01:58 11,5 C 10,0 C 85 % 1018,0 hPa 0,0 l/m 0 min 0 min 0 W/m 41,8 km/h (6 Bft)
23.12.2014 02:00 11,5 C 10,0 C 84 % 1018,2 hPa 0,0 l/m 0 min 0 min 0 W/m 43,9 km/h (6 Bft)
23.12.2014 02:02 11,5 C 10,0 C 84 % 1018,0 hPa 0,0 l/m 0 min 0 min 0 W/m 37,7 km/h (5 Bft)
23.12.2014 02:04 11,5 C 10,0 C 84 % 1018,0 hPa 0,0 l/m 0 min 0 min 0 W/m 41,8 km/h (6 Bft)
23.12.2014 02:06 11,5 C 10,0 C 84 % 1018,0 hPa 0,0 l/m 0 min 0 min 0 W/m 46,0 km/h (6 Bft)
23.12.2014 02:08 11,5 C 10,0 C 84 % 1018,1 hPa 0,0 l/m 0 min 0 min 0 W/m 41,8 km/h (6 Bft)
23.12.2014 02:10 11,5 C 10,0 C 84 % 1018,1 hPa 0,0 l/m 0 min 0 min 0 W/m 39,7 km/h (6 Bft)
23.12.2014 02:12 11,5 C 10,0 C 84 % 1018,1 hPa 0,0 l/m 0 min 0 min 0 W/m 46,0 km/h (6 Bft)
23.12.2014 02:14 11,5 C 10,0 C 84 % 1018,1 hPa 0,0 l/m 0 min 0 min 0 W/m 43,9 km/h (6 Bft)
23.12.2014 02:16 11,5 C 10,0 C 84 % 1018,0 hPa 0,0 l/m 0 min 0 min 0 W/m 41,8 km/h (6 Bft)
23.12.2014 02:18 11,5 C 10,0 C 84 % 1018,2 hPa 0,0 l/m 0 min 0 min 0 W/m 43,9 km/h (6 Bft)
23.12.2014 02:20 11,5 C 10,0 C 84 % 1018,1 hPa 0,0 l/m 0 min 0 min 0 W/m 37,7 km/h (5 Bft)
23.12.2014 02:22 11,4 C 10,0 C 84 % 1018,0 hPa 0,0 l/m 0 min 0 min 0 W/m 39,7 km/h (6 Bft)
23.12.2014 02:24 11,4 C 10,0 C 84 % 1018,1 hPa 0,0 l/m 0 min 0 min 0 W/m 37,7 km/h (5 Bft)
23.12.2014 02:26 11,5 C 10,0 C 84 % 1018,2 hPa 0,0 l/m 0 min 0 min 0 W/m 43,9 km/h (6 Bft)
23.12.2014 02:28 11,4 C 10,0 C 84 % 1018,1 hPa 0,0 l/m 0 min 0 min 0 W/m 37,7 km/h (5 Bft)
23.12.2014 02:30 11,4 C 10,0 C 84 % 1018,1 hPa 0,0 l/m 0 min 0 min 0 W/m 50,2 km/h (7 Bft)
23.12.2014 02:32 11,4 C 10,0 C 84 % 1018,2 hPa 0,0 l/m 0 min 0 min 0 W/m 37,7 km/h (5 Bft)
23.12.2014 02:34 11,4 C 10,0 C 84 % 1018,3 hPa 0,0 l/m 0 min 0 min 0 W/m 48,1 km/h (6 Bft)
23.12.2014 02:36 11,4 C 10,0 C 84 % 1018,3 hPa 0,0 l/m 0 min 0 min 0 W/m 41,8 km/h (6 Bft)
23.12.2014 02:38 11,4 C 10,0 C 84 % 1018,2 hPa 0,0 l/m 0 min 0 min 0 W/m 27,2 km/h (4 Bft)
23.12.2014 02:40 11,4 C 10,0 C 85 % 1018,2 hPa 0,0 l/m 0 min 0 min 0 W/m 41,8 km/h (6 Bft)
23.12.2014 02:42 11,4 C 10,0 C 85 % 1018,1 hPa 0,0 l/m 0 min 0 min 0 W/m 43,9 km/h (6 Bft)
23.12.2014 02:44 11,4 C 10,0 C 85 % 1018,3 hPa 0,0 l/m 0 min 0 min 0 W/m 48,1 km/h (6 Bft)
23.12.2014 02:46 11,4 C 10,0 C 85 % 1018,4 hPa 0,0 l/m 0 min 0 min 0 W/m 43,9 km/h (6 Bft)
23.12.2014 02:48 11,4 C 10,0 C 85 % 1018,3 hPa 0,0 l/m 0 min 0 min 0 W/m 35,6 km/h (5 Bft)
23.12.2014 02:50 11,4 C 10,0 C 85 % 1018,3 hPa 0,0 l/m 0 min 0 min 0 W/m 43,9 km/h (6 Bft)
23.12.2014 02:52 11,4 C 10,0 C 85 % 1018,2 hPa 0,0 l/m 0 min 0 min 0 W/m 31,4 km/h (5 Bft)
23.12.2014 02:54 11,4 C 10,0 C 85 % 1018,3 hPa 0,0 l/m 0 min 0 min 0 W/m 39,7 km/h (6 Bft)
23.12.2014 02:56 11,4 C 10,0 C 85 % 1018,4 hPa 0,0 l/m 0 min 0 min 0 W/m 52,3 km/h (7 Bft)
23.12.2014 02:58 11,4 C 10,0 C 85 % 1018,4 hPa 0,0 l/m 0 min 0 min 0 W/m 39,7 km/h (6 Bft)
23.12.2014 03:00 11,4 C 10,0 C 85 % 1018,4 hPa 0,0 l/m 0 min 0 min 0 W/m 35,6 km/h (5 Bft)
23.12.2014 03:02 11,4 C 10,0 C 85 % 1018,4 hPa 0,0 l/m 0 min 0 min 0 W/m 33,5 km/h (5 Bft)
23.12.2014 03:04 11,4 C 10,0 C 85 % 1018,4 hPa 0,0 l/m 0 min 0 min 0 W/m 37,7 km/h (5 Bft)
23.12.2014 03:06 11,4 C 10,0 C 85 % 1018,4 hPa 0,0 l/m 0 min 0 min 0 W/m 41,8 km/h (6 Bft)
23.12.2014 03:08 11,4 C 10,0 C 85 % 1018,5 hPa 0,0 l/m 0 min 0 min 0 W/m 29,3 km/h (5 Bft)
23.12.2014 03:10 11,4 C 10,0 C 85 % 1018,7 hPa 0,0 l/m 0 min 0 min 0 W/m 52,3 km/h (7 Bft)
23.12.2014 03:12 11,4 C 10,0 C 85 % 1018,5 hPa 0,0 l/m 0 min 0 min 0 W/m 33,5 km/h (5 Bft)
23.12.2014 03:14 11,4 C 10,0 C 85 % 1018,5 hPa 0,0 l/m 0 min 0 min 0 W/m 35,6 km/h (5 Bft)
23.12.2014 03:16 11,4 C 10,0 C 85 % 1018,5 hPa 0,0 l/m 0 min 0 min 0 W/m 41,8 km/h (6 Bft)
23.12.2014 03:18 11,3 C 10,0 C 85 % 1018,6 hPa 0,0 l/m 0 min 0 min 0 W/m 46,0 km/h (6 Bft)
23.12.2014 03:20 11,4 C 10,0 C 85 % 1018,5 hPa 0,0 l/m 0 min 0 min 0 W/m 35,6 km/h (5 Bft)
23.12.2014 03:22 11,3 C 10,0 C 85 % 1018,6 hPa 0,0 l/m 0 min 0 min 0 W/m 31,4 km/h (5 Bft)
23.12.2014 03:24 11,3 C 10,0 C 85 % 1018,5 hPa 0,0 l/m 0 min 0 min 0 W/m 33,5 km/h (5 Bft)
23.12.2014 03:26 11,3 C 10,0 C 85 % 1018,7 hPa 0,0 l/m 0 min 0 min 0 W/m 33,5 km/h (5 Bft)
23.12.2014 03:28 11,3 C 10,0 C 85 % 1018,5 hPa 0,0 l/m 0 min 0 min 0 W/m 48,1 km/h (6 Bft)
23.12.2014 03:30 11,3 C 10,0 C 85 % 1018,5 hPa 0,0 l/m 0 min 0 min 0 W/m 37,7 km/h (5 Bft)
23.12.2014 03:32 11,3 C 10,0 C 85 % 1018,6 hPa 0,0 l/m 0 min 0 min 0 W/m 41,8 km/h (6 Bft)
23.12.2014 03:34 11,3 C 10,0 C 85 % 1018,6 hPa 0,0 l/m 0 min 0 min 0 W/m 35,6 km/h (5 Bft)
23.12.2014 03:36 11,3 C 10,0 C 85 % 1018,5 hPa 0,0 l/m 0 min 0 min 0 W/m 43,9 km/h (6 Bft)
23.12.2014 03:38 11,3 C 10,0 C 85 % 1018,7 hPa 0,0 l/m 0 min 0 min 0 W/m 33,5 km/h (5 Bft)
23.12.2014 03:40 11,3 C 10,0 C 85 % 1018,6 hPa 0,0 l/m 0 min 0 min 0 W/m 50,2 km/h (7 Bft)
23.12.2014 03:42 11,3 C 10,0 C 85 % 1018,6 hPa 0,0 l/m 0 min 0 min 0 W/m 27,2 km/h (4 Bft)
23.12.2014 03:44 11,3 C 10,0 C 85 % 1018,7 hPa 0,0 l/m 0 min 0 min 0 W/m 50,2 km/h (7 Bft)
23.12.2014 03:46 11,3 C 10,0 C 85 % 1018,5 hPa 0,0 l/m 0 min 0 min 0 W/m 35,6 km/h (5 Bft)
23.12.2014 03:48 11,3 C 10,0 C 85 % 1018,5 hPa 0,0 l/m 0 min 0 min 0 W/m 37,7 km/h (5 Bft)
23.12.2014 03:50 11,3 C 10,0 C 85 % 1018,4 hPa 0,0 l/m 0 min 0 min 0 W/m 43,9 km/h (6 Bft)
23.12.2014 03:52 11,3 C 10,0 C 85 % 1018,4 hPa 0,0 l/m 0 min 0 min 0 W/m 41,8 km/h (6 Bft)
23.12.2014 03:54 11,3 C 10,0 C 85 % 1018,5 hPa 0,0 l/m 0 min 0 min 0 W/m 33,5 km/h (5 Bft)
23.12.2014 03:56 11,3 C 10,0 C 85 % 1018,5 hPa 0,0 l/m 0 min 0 min 0 W/m 31,4 km/h (5 Bft)
23.12.2014 03:58 11,3 C 10,0 C 85 % 1018,5 hPa 0,0 l/m 0 min 0 min 0 W/m 31,4 km/h (5 Bft)
23.12.2014 04:00 11,2 C 10,0 C 85 % 1018,5 hPa 0,0 l/m 0 min 0 min 0 W/m 25,1 km/h (4 Bft)
23.12.2014 04:02 11,2 C 10,0 C 85 % 1018,5 hPa 0,0 l/m 0 min 0 min 0 W/m 25,1 km/h (4 Bft)
23.12.2014 04:04 11,2 C 9,4 C 85 % 1018,5 hPa 0,0 l/m 0 min 0 min 0 W/m 27,2 km/h (4 Bft)
23.12.2014 04:06 11,2 C 10,0 C 85 % 1018,5 hPa 0,0 l/m 0 min 0 min 0 W/m 39,7 km/h (6 Bft)
23.12.2014 04:08 11,2 C 10,0 C 85 % 1018,4 hPa 0,0 l/m 0 min 0 min 0 W/m 41,8 km/h (6 Bft)
23.12.2014 04:10 11,2 C 10,0 C 85 % 1018,4 hPa 0,0 l/m 0 min 0 min 0 W/m 43,9 km/h (6 Bft)
23.12.2014 04:12 11,2 C 10,0 C 85 % 1018,5 hPa 0,0 l/m 0 min 0 min 0 W/m 39,7 km/h (6 Bft)
23.12.2014 04:14 11,2 C 10,0 C 85 % 1018,5 hPa 0,0 l/m 0 min 0 min 0 W/m 27,2 km/h (4 Bft)
23.12.2014 04:16 11,2 C 10,0 C 85 % 1018,5 hPa 0,0 l/m 0 min 0 min 0 W/m 33,5 km/h (5 Bft)
23.12.2014 04:18 11,2 C 10,0 C 85 % 1018,6 hPa 0,0 l/m 0 min 0 min 0 W/m 43,9 km/h (6 Bft)
23.12.2014 04:20 11,2 C 10,0 C 85 % 1018,5 hPa 0,0 l/m 0 min 0 min 0 W/m 43,9 km/h (6 Bft)
23.12.2014 04:22 11,2 C 10,0 C 85 % 1018,4 hPa 0,0 l/m 0 min 0 min 0 W/m 37,7 km/h (5 Bft)
23.12.2014 04:24 11,2 C 10,0 C 85 % 1018,5 hPa 0,0 l/m 0 min 0 min 0 W/m 37,7 km/h (5 Bft)
23.12.2014 04:26 11,2 C 10,0 C 85 % 1018,6 hPa 0,0 l/m 0 min 0 min 0 W/m 37,7 km/h (5 Bft)
23.12.2014 04:28 11,2 C 9,4 C 85 % 1018,4 hPa 0,0 l/m 0 min 0 min 0 W/m 27,2 km/h (4 Bft)
23.12.2014 04:30 11,1 C 10,0 C 85 % 1018,5 hPa 0,0 l/m 0 min 0 min 0 W/m 37,7 km/h (5 Bft)
23.12.2014 04:32 11,2 C 9,4 C 85 % 1018,6 hPa 0,0 l/m 0 min 0 min 0 W/m 48,1 km/h (6 Bft)
23.12.2014 04:34 11,1 C 10,0 C 85 % 1018,7 hPa 0,0 l/m 0 min 0 min 0 W/m 37,7 km/h (5 Bft)
23.12.2014 04:36 11,1 C 9,4 C 85 % 1018,5 hPa 0,0 l/m 0 min 0 min 0 W/m 39,7 km/h (6 Bft)
23.12.2014 04:38 11,1 C 9,4 C 85 % 1018,4 hPa 0,0 l/m 0 min 0 min 0 W/m 33,5 km/h (5 Bft)
23.12.2014 04:40 11,1 C 10,0 C 85 % 1018,5 hPa 0,0 l/m 0 min 0 min 0 W/m 48,1 km/h (6 Bft)
23.12.2014 04:42 11,1 C 9,4 C 85 % 1018,5 hPa 0,0 l/m 0 min 0 min 0 W/m 37,7 km/h (5 Bft)
23.12.2014 04:44 11,1 C 9,4 C 85 % 1018,5 hPa 0,0 l/m 0 min 0 min 0 W/m 46,0 km/h (6 Bft)
23.12.2014 04:46 11,1 C 9,4 C 85 % 1018,4 hPa 0,0 l/m 0 min 0 min 0 W/m 33,5 km/h (5 Bft)
23.12.2014 04:48 11,1 C 9,4 C 85 % 1018,4 hPa 0,0 l/m 0 min 0 min 0 W/m 37,7 km/h (5 Bft)
23.12.2014 04:50 11,1 C 9,4 C 85 % 1018,5 hPa 0,0 l/m 0 min 0 min 0 W/m 35,6 km/h (5 Bft)
23.12.2014 04:52 11,1 C 9,4 C 85 % 1018,4 hPa 0,0 l/m 0 min 0 min 0 W/m 23,0 km/h (4 Bft)
23.12.2014 04:54 11,1 C 9,4 C 85 % 1018,4 hPa 0,0 l/m 0 min 0 min 0 W/m 27,2 km/h (4 Bft)
23.12.2014 04:56 11,1 C 9,4 C 85 % 1018,3 hPa 0,0 l/m 0 min 0 min 0 W/m 27,2 km/h (4 Bft)
23.12.2014 04:58 11,1 C 9,4 C 85 % 1018,3 hPa 0,0 l/m 0 min 0 min 0 W/m 37,7 km/h (5 Bft)
23.12.2014 05:00 11,1 C 9,4 C 85 % 1018,3 hPa 0,0 l/m 0 min 0 min 0 W/m 27,2 km/h (4 Bft)
23.12.2014 05:02 11,1 C 9,4 C 85 % 1018,3 hPa 0,0 l/m 0 min 0 min 0 W/m 27,2 km/h (4 Bft)
23.12.2014 05:04 11,1 C 9,4 C 85 % 1018,4 hPa 0,0 l/m 0 min 0 min 0 W/m 35,6 km/h (5 Bft)
23.12.2014 05:06 11,1 C 9,4 C 85 % 1018,3 hPa 0,0 l/m 0 min 0 min 0 W/m 46,0 km/h (6 Bft)
23.12.2014 05:08 11,1 C 9,4 C 85 % 1018,4 hPa 0,0 l/m 0 min 0 min 0 W/m 35,6 km/h (5 Bft)
23.12.2014 05:10 11,1 C 9,4 C 85 % 1018,4 hPa 0,0 l/m 0 min 0 min 0 W/m 31,4 km/h (5 Bft)
23.12.2014 05:12 11,1 C 9,4 C 85 % 1018,4 hPa 0,0 l/m 0 min 0 min 0 W/m 33,5 km/h (5 Bft)
23.12.2014 05:14 11,1 C 9,4 C 85 % 1018,2 hPa 0,0 l/m 0 min 0 min 0 W/m 39,7 km/h (6 Bft)
23.12.2014 05:16 11,1 C 9,4 C 85 % 1018,2 hPa 0,0 l/m 0 min 0 min 0 W/m 39,7 km/h (6 Bft)
23.12.2014 05:18 11,1 C 9,4 C 85 % 1018,3 hPa 0,0 l/m 0 min 0 min 0 W/m 35,6 km/h (5 Bft)
23.12.2014 05:20 11,1 C 9,4 C 85 % 1018,4 hPa 0,0 l/m 0 min 0 min 0 W/m 39,7 km/h (6 Bft)
23.12.2014 05:22 11,1 C 9,4 C 85 % 1018,2 hPa 0,0 l/m 0 min 0 min 0 W/m 37,7 km/h (5 Bft)
23.12.2014 05:24 11,1 C 9,4 C 85 % 1018,4 hPa 0,0 l/m 0 min 0 min 0 W/m 46,0 km/h (6 Bft)
23.12.2014 05:26 11,1 C 9,4 C 85 % 1018,4 hPa 0,0 l/m 0 min 0 min 0 W/m 29,3 km/h (5 Bft)
23.12.2014 05:28 11,1 C 9,4 C 85 % 1018,4 hPa 0,0 l/m 0 min 0 min 0 W/m 31,4 km/h (5 Bft)
23.12.2014 05:30 11,1 C 9,4 C 85 % 1018,4 hPa 0,0 l/m 0 min 0 min 0 W/m 27,2 km/h (4 Bft)
23.12.2014 05:32 11,1 C 9,4 C 85 % 1018,3 hPa 0,0 l/m 0 min 0 min 0 W/m 35,6 km/h (5 Bft)
23.12.2014 05:34 11,1 C 9,4 C 85 % 1018,3 hPa 0,0 l/m 0 min 0 min 0 W/m 33,5 km/h (5 Bft)
23.12.2014 05:36 11,1 C 9,4 C 85 % 1018,5 hPa 0,0 l/m 0 min 0 min 0 W/m 31,4 km/h (5 Bft)
23.12.2014 05:38 11,1 C 9,4 C 85 % 1018,5 hPa 0,0 l/m 0 min 0 min 0 W/m 41,8 km/h (6 Bft)
23.12.2014 05:40 11,1 C 9,4 C 85 % 1018,5 hPa 0,0 l/m 0 min 0 min 0 W/m 39,7 km/h (6 Bft)
23.12.2014 05:42 11,1 C 9,4 C 85 % 1018,5 hPa 0,0 l/m 0 min 0 min 0 W/m 33,5 km/h (5 Bft)
23.12.2014 05:44 11,1 C 9,4 C 85 % 1018,5 hPa 0,0 l/m 0 min 0 min 0 W/m 31,4 km/h (5 Bft)
23.12.2014 05:46 11,1 C 9,4 C 85 % 1018,4 hPa 0,0 l/m 0 min 0 min 0 W/m 33,5 km/h (5 Bft)
23.12.2014 05:48 11,1 C 9,4 C 85 % 1018,5 hPa 0,0 l/m 0 min 0 min 0 W/m 37,7 km/h (5 Bft)
23.12.2014 05:50 11,1 C 9,4 C 85 % 1018,6 hPa 0,0 l/m 0 min 0 min 0 W/m 27,2 km/h (4 Bft)
23.12.2014 05:52 11,1 C 9,4 C 85 % 1018,6 hPa 0,0 l/m 0 min 0 min 0 W/m 33,5 km/h (5 Bft)
23.12.2014 05:54 11,1 C 9,4 C 84 % 1018,6 hPa 0,0 l/m 0 min 0 min 0 W/m 29,3 km/h (5 Bft)
23.12.2014 05:56 11,0 C 9,4 C 84 % 1018,7 hPa 0,0 l/m 0 min 0 min 0 W/m 37,7 km/h (5 Bft)
23.12.2014 05:58 11,0 C 9,4 C 84 % 1018,6 hPa 0,0 l/m 0 min 0 min 0 W/m 35,6 km/h (5 Bft)
23.12.2014 06:00 11,1 C 9,4 C 84 % 1018,5 hPa 0,0 l/m 0 min 0 min 0 W/m 31,4 km/h (5 Bft)
23.12.2014 06:02 11,0 C 9,4 C 84 % 1018,5 hPa 0,0 l/m 0 min 0 min 0 W/m 35,6 km/h (5 Bft)
23.12.2014 06:05 11,1 C 9,4 C 84 % 1018,5 hPa 0,0 l/m 0 min 0 min 0 W/m 31,4 km/h (5 Bft)
23.12.2014 06:06 11,1 C 9,4 C 84 % 1018,5 hPa 0,0 l/m 0 min 0 min 0 W/m 35,6 km/h (5 Bft)
23.12.2014 06:08 11,0 C 9,4 C 84 % 1018,5 hPa 0,0 l/m 0 min 0 min 0 W/m 29,3 km/h (5 Bft)
23.12.2014 06:10 11,0 C 9,4 C 84 % 1018,5 hPa 0,0 l/m 0 min 0 min 0 W/m 35,6 km/h (5 Bft)
23.12.2014 06:12 11,0 C 9,4 C 84 % 1018,5 hPa 0,0 l/m 0 min 0 min 0 W/m 35,6 km/h (5 Bft)
23.12.2014 06:14 11,0 C 9,4 C 84 % 1018,5 hPa 0,0 l/m 0 min 0 min 0 W/m 35,6 km/h (5 Bft)
23.12.2014 06:16 11,0 C 9,4 C 84 % 1018,4 hPa 0,0 l/m 0 min 0 min 0 W/m 37,7 km/h (5 Bft)
23.12.2014 06:18 11,0 C 9,4 C 84 % 1018,5 hPa 0,0 l/m 0 min 0 min 0 W/m 33,5 km/h (5 Bft)
23.12.2014 06:20 11,0 C 9,4 C 84 % 1018,4 hPa 0,0 l/m 0 min 0 min 0 W/m 35,6 km/h (5 Bft)
23.12.2014 06:22 11,0 C 9,4 C 84 % 1018,5 hPa 0,0 l/m 0 min 0 min 0 W/m 35,6 km/h (5 Bft)
23.12.2014 06:24 11,0 C 9,4 C 84 % 1018,5 hPa 0,0 l/m 0 min 0 min 0 W/m 35,6 km/h (5 Bft)
23.12.2014 06:26 11,0 C 9,4 C 84 % 1018,5 hPa 0,0 l/m 0 min 0 min 0 W/m 29,3 km/h (5 Bft)
23.12.2014 06:28 11,0 C 9,4 C 84 % 1018,4 hPa 0,0 l/m 0 min 0 min 0 W/m 33,5 km/h (5 Bft)
23.12.2014 06:30 11,0 C 9,4 C 84 % 1018,5 hPa 0,0 l/m 0 min 0 min 0 W/m 35,6 km/h (5 Bft)
23.12.2014 06:32 11,0 C 9,4 C 84 % 1018,4 hPa 0,0 l/m 0 min 0 min 0 W/m 37,7 km/h (5 Bft)
23.12.2014 06:34 11,0 C 9,4 C 84 % 1018,3 hPa 0,0 l/m 0 min 0 min 0 W/m 35,6 km/h (5 Bft)
23.12.2014 06:36 11,0 C 9,4 C 84 % 1018,4 hPa 0,0 l/m 0 min 0 min 0 W/m 37,7 km/h (5 Bft)
23.12.2014 06:38 11,0 C 9,4 C 84 % 1018,5 hPa 0,0 l/m 0 min 0 min 0 W/m 33,5 km/h (5 Bft)
23.12.2014 06:40 11,0 C 9,4 C 84 % 1018,5 hPa 0,0 l/m 0 min 0 min 0 W/m 27,2 km/h (4 Bft)
23.12.2014 06:42 11,0 C 9,4 C 84 % 1018,5 hPa 0,0 l/m 0 min 0 min 0 W/m 35,6 km/h (5 Bft)
23.12.2014 06:44 11,0 C 9,4 C 84 % 1018,5 hPa 0,0 l/m 0 min 0 min 0 W/m 35,6 km/h (5 Bft)
23.12.2014 06:46 11,0 C 9,4 C 84 % 1018,5 hPa 0,0 l/m 0 min 0 min 0 W/m 35,6 km/h (5 Bft)
23.12.2014 06:48 10,9 C 9,4 C 84 % 1018,4 hPa 0,0 l/m 0 min 0 min 0 W/m 33,5 km/h (5 Bft)
23.12.2014 06:50 11,0 C 9,4 C 84 % 1018,5 hPa 0,0 l/m 0 min 0 min 0 W/m 31,4 km/h (5 Bft)
23.12.2014 06:52 10,9 C 9,4 C 84 % 1018,4 hPa 0,0 l/m 0 min 0 min 0 W/m 31,4 km/h (5 Bft)
23.12.2014 06:54 10,9 C 9,4 C 84 % 1018,5 hPa 0,0 l/m 0 min 0 min 0 W/m 27,2 km/h (4 Bft)
23.12.2014 06:56 10,9 C 9,4 C 84 % 1018,4 hPa 0,0 l/m 0 min 0 min 0 W/m 33,5 km/h (5 Bft)
23.12.2014 06:58 10,9 C 9,4 C 84 % 1018,4 hPa 0,0 l/m 0 min 0 min 0 W/m 31,4 km/h (5 Bft)
23.12.2014 07:00 10,9 C 9,4 C 84 % 1018,4 hPa 0,0 l/m 0 min 0 min 0 W/m 33,5 km/h (5 Bft)
23.12.2014 07:02 10,9 C 9,4 C 84 % 1018,4 hPa 0,0 l/m 0 min 0 min 0 W/m 29,3 km/h (5 Bft)
23.12.2014 07:04 10,9 C 9,4 C 84 % 1018,3 hPa 0,0 l/m 0 min 0 min 0 W/m 33,5 km/h (5 Bft)
23.12.2014 07:06 10,9 C 9,4 C 84 % 1018,3 hPa 0,0 l/m 0 min 0 min 0 W/m 33,5 km/h (5 Bft)
23.12.2014 07:08 10,9 C 9,4 C 84 % 1018,3 hPa 0,0 l/m 0 min 0 min 0 W/m 33,5 km/h (5 Bft)
23.12.2014 07:10 10,9 C 9,4 C 84 % 1018,3 hPa 0,0 l/m 0 min 0 min 0 W/m 25,1 km/h (4 Bft)
23.12.2014 07:12 10,9 C 9,4 C 84 % 1018,2 hPa 0,0 l/m 0 min 0 min 0 W/m 39,7 km/h (6 Bft)
23.12.2014 07:14 10,9 C 9,4 C 84 % 1018,3 hPa 0,0 l/m 0 min 0 min 0 W/m 31,4 km/h (5 Bft)
23.12.2014 07:16 10,9 C 9,4 C 84 % 1018,2 hPa 0,0 l/m 0 min 0 min 0 W/m 37,7 km/h (5 Bft)
23.12.2014 07:18 10,9 C 9,4 C 84 % 1018,2 hPa 0,0 l/m 0 min 0 min 0 W/m 35,6 km/h (5 Bft)
23.12.2014 07:20 10,9 C 9,4 C 85 % 1018,2 hPa 0,0 l/m 0 min 0 min 0 W/m 33,5 km/h (5 Bft)
23.12.2014 07:22 10,9 C 9,4 C 85 % 1018,3 hPa 0,0 l/m 0 min 0 min 0 W/m 46,0 km/h (6 Bft)
23.12.2014 07:24 10,9 C 9,4 C 85 % 1018,2 hPa 0,0 l/m 0 min 0 min 0 W/m 29,3 km/h (5 Bft)
23.12.2014 07:26 10,9 C 9,4 C 85 % 1018,2 hPa 0,0 l/m 0 min 0 min 0 W/m 35,6 km/h (5 Bft)
23.12.2014 07:28 10,9 C 9,4 C 85 % 1018,1 hPa 0,0 l/m 0 min 0 min 0 W/m 29,3 km/h (5 Bft)
23.12.2014 07:30 10,9 C 9,4 C 85 % 1018,3 hPa 0,0 l/m 0 min 0 min 0 W/m 25,1 km/h (4 Bft)
23.12.2014 07:32 10,9 C 9,4 C 85 % 1018,3 hPa 0,0 l/m 0 min 0 min 0 W/m 37,7 km/h (5 Bft)
23.12.2014 07:34 10,9 C 9,4 C 85 % 1018,3 hPa 0,0 l/m 0 min 0 min 0 W/m 41,8 km/h (6 Bft)
23.12.2014 07:36 10,9 C 9,4 C 85 % 1018,3 hPa 0,0 l/m 0 min 0 min 0 W/m 33,5 km/h (5 Bft)
23.12.2014 07:38 10,9 C 9,4 C 85 % 1018,3 hPa 0,0 l/m 0 min 0 min 0 W/m 33,5 km/h (5 Bft)
23.12.2014 07:40 10,9 C 9,4 C 85 % 1018,4 hPa 0,0 l/m 0 min 0 min 0 W/m 33,5 km/h (5 Bft)
23.12.2014 07:42 10,9 C 9,4 C 86 % 1018,4 hPa 0,0 l/m 0 min 0 min 0 W/m 35,6 km/h (5 Bft)
23.12.2014 07:44 10,9 C 9,4 C 86 % 1018,4 hPa 0,0 l/m 0 min 0 min 0 W/m 29,3 km/h (5 Bft)
23.12.2014 07:46 10,9 C 9,4 C 86 % 1018,4 hPa 0,0 l/m 0 min 0 min 0 W/m 33,5 km/h (5 Bft)
23.12.2014 07:48 10,9 C 9,4 C 86 % 1018,4 hPa 0,0 l/m 0 min 0 min 0 W/m 35,6 km/h (5 Bft)
23.12.2014 07:50 10,9 C 9,4 C 86 % 1018,4 hPa 0,0 l/m 0 min 0 min 0 W/m 31,4 km/h (5 Bft)
23.12.2014 07:52 10,8 C 9,4 C 86 % 1018,5 hPa 0,0 l/m 0 min 0 min 0 W/m 33,5 km/h (5 Bft)
23.12.2014 07:54 10,8 C 9,4 C 87 % 1018,5 hPa 0,0 l/m 0 min 0 min 0 W/m 41,8 km/h (6 Bft)
23.12.2014 07:56 10,8 C 9,4 C 87 % 1018,5 hPa 0,0 l/m 0 min 0 min 0 W/m 33,5 km/h (5 Bft)
23.12.2014 07:58 10,8 C 9,4 C 87 % 1018,4 hPa 0,0 l/m 0 min 0 min 0 W/m 33,5 km/h (5 Bft)
23.12.2014 08:00 10,8 C 9,4 C 87 % 1018,5 hPa 0,0 l/m 0 min 0 min 0 W/m 31,4 km/h (5 Bft)
23.12.2014 08:02 10,8 C 9,4 C 87 % 1018,5 hPa 0,0 l/m 0 min 0 min 0 W/m 29,3 km/h (5 Bft)
23.12.2014 08:04 10,8 C 9,4 C 87 % 1018,5 hPa 0,0 l/m 0 min 0 min 0 W/m 43,9 km/h (6 Bft)
23.12.2014 08:06 10,8 C 9,4 C 87 % 1018,4 hPa 0,0 l/m 0 min 0 min 0 W/m 35,6 km/h (5 Bft)
23.12.2014 08:08 10,7 C 9,4 C 87 % 1018,5 hPa 0,0 l/m 0 min 0 min 0 W/m 29,3 km/h (5 Bft)
23.12.2014 08:10 10,7 C 9,4 C 87 % 1018,4 hPa 0,0 l/m 0 min 0 min 0 W/m 27,2 km/h (4 Bft)
23.12.2014 08:12 10,7 C 9,4 C 87 % 1018,5 hPa 0,0 l/m 0 min 0 min 0 W/m 33,5 km/h (5 Bft)
23.12.2014 08:14 10,7 C 9,4 C 87 % 1018,5 hPa 0,0 l/m 0 min 0 min 0 W/m 23,0 km/h (4 Bft)
23.12.2014 08:16 10,7 C 9,4 C 87 % 1018,5 hPa 0,0 l/m 0 min 0 min 0 W/m 31,4 km/h (5 Bft)
23.12.2014 08:18 10,7 C 9,4 C 87 % 1018,4 hPa 0,0 l/m 0 min 0 min 0 W/m 31,4 km/h (5 Bft)
23.12.2014 08:20 10,7 C 9,4 C 87 % 1018,6 hPa 0,0 l/m 0 min 0 min 0 W/m 37,7 km/h (5 Bft)
23.12.2014 08:22 10,7 C 9,4 C 88 % 1018,5 hPa 0,0 l/m 0 min 0 min 0 W/m 43,9 km/h (6 Bft)
23.12.2014 08:24 10,7 C 9,4 C 88 % 1018,5 hPa 0,0 l/m 0 min 0 min 0 W/m 31,4 km/h (5 Bft)
23.12.2014 08:26 10,7 C 9,4 C 88 % 1018,6 hPa 0,0 l/m 0 min 0 min 0 W/m 39,7 km/h (6 Bft)
23.12.2014 08:28 10,7 C 9,4 C 88 % 1018,6 hPa 0,0 l/m 0 min 0 min 0 W/m 27,2 km/h (4 Bft)
23.12.2014 08:30 10,7 C 9,4 C 88 % 1018,6 hPa 0,0 l/m 0 min 0 min 0 W/m 27,2 km/h (4 Bft)
23.12.2014 08:32 10,7 C 9,4 C 88 % 1018,6 hPa 0,0 l/m 0 min 0 min 0 W/m 27,2 km/h (4 Bft)
23.12.2014 08:34 10,7 C 9,4 C 88 % 1018,6 hPa 0,0 l/m 0 min 0 min 0 W/m 25,1 km/h (4 Bft)
23.12.2014 08:36 10,6 C 9,4 C 88 % 1018,6 hPa 0,0 l/m 0 min 0 min 0 W/m 35,6 km/h (5 Bft)
23.12.2014 08:38 10,6 C 9,4 C 89 % 1018,6 hPa 0,0 l/m 0 min 0 min 0 W/m 31,4 km/h (5 Bft)
23.12.2014 08:40 10,6 C 8,9 C 89 % 1018,7 hPa 0,0 l/m 0 min 0 min 0 W/m 46,0 km/h (6 Bft)
23.12.2014 08:42 10,6 C 8,9 C 89 % 1018,6 hPa 0,0 l/m 0 min 0 min 0 W/m 35,6 km/h (5 Bft)
23.12.2014 08:44 10,6 C 8,9 C 90 % 1018,7 hPa 0,0 l/m 0 min 0 min 0 W/m 35,6 km/h (5 Bft)
23.12.2014 08:46 10,5 C 8,9 C 90 % 1018,7 hPa 0,0 l/m 0 min 0 min 0 W/m 33,5 km/h (5 Bft)
23.12.2014 08:48 10,5 C 8,9 C 90 % 1018,6 hPa 0,0 l/m 0 min 0 min 0 W/m 29,3 km/h (5 Bft)
23.12.2014 08:50 10,5 C 8,9 C 90 % 1018,7 hPa 0,0 l/m 0 min 0 min 0 W/m 29,3 km/h (5 Bft)
23.12.2014 08:52 10,4 C 8,9 C 90 % 1018,7 hPa 0,0 l/m 0 min 0 min 0 W/m 29,3 km/h (5 Bft)
23.12.2014 08:54 10,4 C 8,9 C 90 % 1018,7 hPa 0,0 l/m 0 min 0 min 0 W/m 23,0 km/h (4 Bft)
23.12.2014 08:56 10,4 C 8,9 C 90 % 1018,7 hPa 0,0 l/m 0 min 0 min 0 W/m 31,4 km/h (5 Bft)
23.12.2014 08:58 10,4 C 8,9 C 91 % 1018,7 hPa 0,0 l/m 0 min 0 min 2 W/m 43,9 km/h (6 Bft)
23.12.2014 09:00 10,4 C 8,9 C 91 % 1018,7 hPa 0,0 l/m 0 min 0 min 4 W/m 41,8 km/h (6 Bft)
23.12.2014 09:02 10,4 C 8,9 C 91 % 1018,6 hPa 0,0 l/m 0 min 0 min 2 W/m 41,8 km/h (6 Bft)
23.12.2014 09:04 10,4 C 8,9 C 91 % 1018,7 hPa 0,0 l/m 0 min 0 min 5 W/m 35,6 km/h (5 Bft)
23.12.2014 09:06 10,4 C 8,9 C 91 % 1018,6 hPa 0,0 l/m 0 min 0 min 5 W/m 27,2 km/h (4 Bft)
23.12.2014 09:08 10,4 C 8,9 C 91 % 1018,6 hPa 0,0 l/m 0 min 0 min 6 W/m 35,6 km/h (5 Bft)
23.12.2014 09:10 10,4 C 8,9 C 91 % 1018,6 hPa 0,0 l/m 0 min 0 min 7 W/m 48,1 km/h (6 Bft)
23.12.2014 09:12 10,3 C 8,9 C 91 % 1018,6 hPa 0,0 l/m 0 min 0 min 7 W/m 46,0 km/h (6 Bft)
23.12.2014 09:14 10,4 C 8,9 C 91 % 1018,6 hPa 0,0 l/m 0 min 0 min 8 W/m 41,8 km/h (6 Bft)
23.12.2014 09:16 10,3 C 8,9 C 91 % 1018,6 hPa 0,0 l/m 0 min 0 min 9 W/m 41,8 km/h (6 Bft)
23.12.2014 09:18 10,3 C 8,9 C 91 % 1018,6 hPa 0,0 l/m 0 min 0 min 11 W/m 35,6 km/h (5 Bft)
23.12.2014 09:20 10,3 C 8,9 C 92 % 1018,6 hPa 0,0 l/m 0 min 0 min 11 W/m 43,9 km/h (6 Bft)
23.12.2014 09:22 10,3 C 8,9 C 92 % 1018,7 hPa 0,0 l/m 0 min 2 min 10 W/m 39,7 km/h (6 Bft)
23.12.2014 09:24 10,3 C 8,9 C 92 % 1018,5 hPa 0,0 l/m 0 min 0 min 12 W/m 33,5 km/h (5 Bft)
23.12.2014 09:26 10,3 C 8,9 C 92 % 1018,6 hPa 0,0 l/m 0 min 2 min 11 W/m 31,4 km/h (5 Bft)
23.12.2014 09:28 10,3 C 8,9 C 92 % 1018,5 hPa 0,0 l/m 0 min 0 min 11 W/m 27,2 km/h (4 Bft)
23.12.2014 09:30 10,3 C 8,9 C 92 % 1018,5 hPa 0,0 l/m 0 min 2 min 11 W/m 39,7 km/h (6 Bft)
23.12.2014 09:32 10,2 C 8,3 C 92 % 1018,5 hPa 0,0 l/m 0 min 0 min 10 W/m 37,7 km/h (5 Bft)
23.12.2014 09:34 10,2 C 8,3 C 92 % 1018,5 hPa 0,0 l/m 0 min 2 min 11 W/m 54,4 km/h (7 Bft)
23.12.2014 09:36 10,2 C 8,3 C 92 % 1018,5 hPa 0,0 l/m 0 min 2 min 11 W/m 41,8 km/h (6 Bft)
23.12.2014 09:38 10,2 C 8,3 C 92 % 1018,4 hPa 0,0 l/m 0 min 0 min 12 W/m 33,5 km/h (5 Bft)
23.12.2014 09:40 10,2 C 8,3 C 92 % 1018,4 hPa 0,0 l/m 0 min 0 min 12 W/m 29,3 km/h (5 Bft)
23.12.2014 09:42 10,2 C 8,3 C 93 % 1018,4 hPa 0,0 l/m 0 min 0 min 11 W/m 35,6 km/h (5 Bft)
23.12.2014 09:44 10,2 C 8,3 C 93 % 1018,5 hPa 0,0 l/m 0 min 0 min 11 W/m 33,5 km/h (5 Bft)
23.12.2014 09:46 10,1 C 8,3 C 93 % 1018,5 hPa 0,0 l/m 0 min 0 min 10 W/m 33,5 km/h (5 Bft)
23.12.2014 09:48 10,1 C 8,3 C 93 % 1018,6 hPa 0,0 l/m 0 min 0 min 10 W/m 39,7 km/h (6 Bft)
23.12.2014 09:50 10,1 C 8,3 C 93 % 1018,5 hPa 0,0 l/m 0 min 0 min 9 W/m 29,3 km/h (5 Bft)
23.12.2014 09:52 10,1 C 8,3 C 93 % 1018,6 hPa 0,0 l/m 0 min 0 min 8 W/m 41,8 km/h (6 Bft)
23.12.2014 09:54 10,1 C 8,3 C 93 % 1018,7 hPa 0,0 l/m 0 min 0 min 11 W/m 35,6 km/h (5 Bft)
23.12.2014 09:56 10,1 C 8,3 C 93 % 1018,6 hPa 0,0 l/m 0 min 0 min 12 W/m 43,9 km/h (6 Bft)
23.12.2014 09:58 10,1 C 8,9 C 93 % 1018,7 hPa 0,0 l/m 0 min 0 min 12 W/m 35,6 km/h (5 Bft)
23.12.2014 10:00 10,1 C 8,9 C 93 % 1018,6 hPa 0,0 l/m 0 min 0 min 14 W/m 33,5 km/h (5 Bft)
23.12.2014 10:02 10,1 C 8,9 C 93 % 1018,6 hPa 0,0 l/m 0 min 0 min 19 W/m 29,3 km/h (5 Bft)
23.12.2014 10:04 10,1 C 8,9 C 93 % 1018,5 hPa 0,0 l/m 0 min 0 min 20 W/m 27,2 km/h (4 Bft)
23.12.2014 10:06 10,1 C 8,9 C 93 % 1018,6 hPa 0,0 l/m 0 min 0 min 18 W/m 37,7 km/h (5 Bft)
23.12.2014 10:08 10,1 C 8,9 C 92 % 1018,6 hPa 0,0 l/m 0 min 0 min 16 W/m 31,4 km/h (5 Bft)
23.12.2014 10:10 10,2 C 8,9 C 92 % 1018,6 hPa 0,0 l/m 0 min 0 min 14 W/m 27,2 km/h (4 Bft)
23.12.2014 10:12 10,2 C 8,9 C 92 % 1018,7 hPa 0,0 l/m 0 min 0 min 16 W/m 20,9 km/h (4 Bft)
23.12.2014 10:14 10,2 C 8,9 C 92 % 1018,6 hPa 0,0 l/m 0 min 0 min 19 W/m 27,2 km/h (4 Bft)
23.12.2014 10:16 10,2 C 8,9 C 92 % 1018,7 hPa 0,0 l/m 0 min 0 min 21 W/m 27,2 km/h (4 Bft)
23.12.2014 10:18 10,2 C 8,9 C 92 % 1018,5 hPa 0,0 l/m 0 min 0 min 23 W/m 37,7 km/h (5 Bft)
23.12.2014 10:20 10,3 C 8,9 C 92 % 1018,5 hPa 0,0 l/m 0 min 0 min 26 W/m 27,2 km/h (4 Bft)
23.12.2014 10:22 10,3 C 9,4 C 92 % 1018,5 hPa 0,0 l/m 0 min 0 min 33 W/m 35,6 km/h (5 Bft)
23.12.2014 10:24 10,3 C 9,4 C 91 % 1018,6 hPa 0,0 l/m 0 min 0 min 29 W/m 27,2 km/h (4 Bft)
23.12.2014 10:26 10,3 C 9,4 C 91 % 1018,5 hPa 0,0 l/m 0 min 0 min 34 W/m 31,4 km/h (5 Bft)
23.12.2014 10:28 10,4 C 9,4 C 91 % 1018,5 hPa 0,0 l/m 0 min 0 min 35 W/m 29,3 km/h (5 Bft)
23.12.2014 10:30 10,4 C 9,4 C 91 % 1018,5 hPa 0,0 l/m 0 min 0 min 32 W/m 29,3 km/h (5 Bft)
23.12.2014 10:32 10,4 C 9,4 C 91 % 1018,5 hPa 0,0 l/m 0 min 0 min 30 W/m 27,2 km/h (4 Bft)
23.12.2014 10:34 10,4 C 9,4 C 91 % 1018,5 hPa 0,0 l/m 0 min 0 min 30 W/m 39,7 km/h (6 Bft)
23.12.2014 10:36 10,5 C 9,4 C 90 % 1018,6 hPa 0,0 l/m 0 min 0 min 24 W/m 46,0 km/h (6 Bft)
23.12.2014 10:38 10,6 C 9,4 C 90 % 1018,6 hPa 0,0 l/m 0 min 0 min 25 W/m 35,6 km/h (5 Bft)
23.12.2014 10:40 10,6 C 9,4 C 90 % 1018,6 hPa 0,0 l/m 0 min 0 min 25 W/m 35,6 km/h (5 Bft)
23.12.2014 10:42 10,6 C 9,4 C 90 % 1018,5 hPa 0,0 l/m 0 min 0 min 27 W/m 31,4 km/h (5 Bft)
23.12.2014 10:44 10,6 C 9,4 C 90 % 1018,4 hPa 0,0 l/m 0 min 0 min 24 W/m 31,4 km/h (5 Bft)
23.12.2014 10:46 10,6 C 9,4 C 90 % 1018,5 hPa 0,0 l/m 0 min 0 min 25 W/m 27,2 km/h (4 Bft)
23.12.2014 10:48 10,7 C 9,4 C 90 % 1018,7 hPa 0,0 l/m 0 min 0 min 36 W/m 43,9 km/h (6 Bft)
23.12.2014 10:50 10,7 C 9,4 C 89 % 1018,6 hPa 0,0 l/m 0 min 0 min 30 W/m 41,8 km/h (6 Bft)
23.12.2014 10:52 10,7 C 9,4 C 89 % 1018,7 hPa 0,0 l/m 0 min 0 min 27 W/m 37,7 km/h (5 Bft)
23.12.2014 10:54 10,7 C 9,4 C 89 % 1018,5 hPa 0,0 l/m 0 min 0 min 32 W/m 50,2 km/h (7 Bft)
23.12.2014 10:56 10,7 C 9,4 C 89 % 1018,5 hPa 0,0 l/m 0 min 0 min 31 W/m 50,2 km/h (7 Bft)
23.12.2014 10:58 10,8 C 9,4 C 89 % 1018,5 hPa 0,0 l/m 0 min 0 min 37 W/m 31,4 km/h (5 Bft)
23.12.2014 11:00 10,8 C 9,4 C 89 % 1018,6 hPa 0,0 l/m 0 min 0 min 34 W/m 46,0 km/h (6 Bft)
23.12.2014 11:02 10,8 C 9,4 C 89 % 1018,6 hPa 0,0 l/m 0 min 0 min 40 W/m 50,2 km/h (7 Bft)
23.12.2014 11:04 10,8 C 9,4 C 88 % 1018,7 hPa 0,0 l/m 0 min 0 min 40 W/m 39,7 km/h (6 Bft)
23.12.2014 11:06 10,9 C 9,4 C 88 % 1018,7 hPa 0,0 l/m 0 min 0 min 34 W/m 41,8 km/h (6 Bft)
23.12.2014 11:08 10,9 C 10,0 C 88 % 1018,7 hPa 0,0 l/m 0 min 0 min 44 W/m 33,5 km/h (5 Bft)
23.12.2014 11:10 10,9 C 10,0 C 88 % 1018,7 hPa 0,0 l/m 0 min 0 min 39 W/m 35,6 km/h (5 Bft)
23.12.2014 11:12 10,9 C 10,0 C 88 % 1018,8 hPa 0,0 l/m 0 min 0 min 39 W/m 50,2 km/h (7 Bft)
23.12.2014 11:14 10,9 C 10,0 C 88 % 1018,7 hPa 0,0 l/m 0 min 0 min 42 W/m 37,7 km/h (5 Bft)
23.12.2014 11:16 10,9 C 10,0 C 88 % 1018,8 hPa 0,0 l/m 0 min 0 min 49 W/m 25,1 km/h (4 Bft)
23.12.2014 11:18 10,9 C 10,0 C 88 % 1018,8 hPa 0,0 l/m 0 min 0 min 60 W/m 43,9 km/h (6 Bft)
23.12.2014 11:20 11,0 C 10,0 C 88 % 1018,8 hPa 0,0 l/m 0 min 0 min 61 W/m 41,8 km/h (6 Bft)
23.12.2014 11:22 11,0 C 10,0 C 88 % 1018,7 hPa 0,0 l/m 0 min 0 min 62 W/m 46,0 km/h (6 Bft)
23.12.2014 11:24 11,0 C 10,0 C 88 % 1018,7 hPa 0,0 l/m 0 min 0 min 65 W/m 48,1 km/h (6 Bft)
23.12.2014 11:26 11,1 C 10,0 C 88 % 1018,7 hPa 0,0 l/m 0 min 0 min 71 W/m 46,0 km/h (6 Bft)
23.12.2014 11:28 11,1 C 10,0 C 88 % 1018,7 hPa 0,0 l/m 0 min 0 min 76 W/m 35,6 km/h (5 Bft)
23.12.2014 11:30 11,1 C 10,0 C 87 % 1018,7 hPa 0,0 l/m 0 min 0 min 72 W/m 48,1 km/h (6 Bft)
23.12.2014 11:32 11,1 C 10,0 C 87 % 1018,8 hPa 0,0 l/m 0 min 0 min 64 W/m 33,5 km/h (5 Bft)
23.12.2014 11:34 11,2 C 10,0 C 87 % 1018,8 hPa 0,0 l/m 0 min 0 min 65 W/m 46,0 km/h (6 Bft)
23.12.2014 11:36 11,2 C 10,0 C 87 % 1018,8 hPa 0,0 l/m 0 min 0 min 70 W/m 48,1 km/h (6 Bft)
23.12.2014 11:38 11,2 C 10,0 C 87 % 1018,8 hPa 0,0 l/m 0 min 0 min 67 W/m 41,8 km/h (6 Bft)
23.12.2014 11:40 11,2 C 10,0 C 87 % 1018,8 hPa 0,0 l/m 0 min 0 min 60 W/m 54,4 km/h (7 Bft)
23.12.2014 11:42 11,3 C 10,0 C 86 % 1018,9 hPa 0,0 l/m 0 min 0 min 65 W/m 43,9 km/h (6 Bft)
23.12.2014 11:44 11,3 C 10,0 C 86 % 1018,9 hPa 0,0 l/m 0 min 0 min 65 W/m 33,5 km/h (5 Bft)
23.12.2014 11:46 11,3 C 10,0 C 86 % 1018,8 hPa 0,0 l/m 0 min 0 min 74 W/m 41,8 km/h (6 Bft)
23.12.2014 11:48 11,3 C 10,0 C 86 % 1018,9 hPa 0,0 l/m 0 min 0 min 82 W/m 29,3 km/h (5 Bft)
23.12.2014 11:50 11,4 C 10,6 C 86 % 1018,8 hPa 0,0 l/m 0 min 0 min 84 W/m 41,8 km/h (6 Bft)
23.12.2014 11:52 11,4 C 10,6 C 86 % 1018,8 hPa 0,0 l/m 0 min 0 min 81 W/m 43,9 km/h (6 Bft)
23.12.2014 11:54 11,4 C 10,6 C 86 % 1018,9 hPa 0,0 l/m 0 min 0 min 80 W/m 39,7 km/h (6 Bft)
23.12.2014 11:56 11,4 C 10,6 C 86 % 1018,8 hPa 0,0 l/m 0 min 0 min 86 W/m 43,9 km/h (6 Bft)
23.12.2014 11:58 11,4 C 10,6 C 86 % 1018,9 hPa 0,0 l/m 0 min 0 min 86 W/m 33,5 km/h (5 Bft)
23.12.2014 12:00 11,4 C 10,6 C 86 % 1018,9 hPa 0,0 l/m 0 min 0 min 82 W/m 29,3 km/h (5 Bft)
23.12.2014 12:02 11,4 C 10,6 C 86 % 1018,9 hPa 0,0 l/m 0 min 0 min 81 W/m 33,5 km/h (5 Bft)
23.12.2014 12:05 11,4 C 10,0 C 86 % 1018,8 hPa 0,0 l/m 0 min 0 min 70 W/m 31,4 km/h (5 Bft)
23.12.2014 12:06 11,4 C 10,0 C 86 % 1018,8 hPa 0,0 l/m 0 min 0 min 77 W/m 31,4 km/h (5 Bft)
23.12.2014 12:08 11,4 C 10,0 C 86 % 1018,8 hPa 0,0 l/m 0 min 0 min 76 W/m 35,6 km/h (5 Bft)
23.12.2014 12:10 11,4 C 10,0 C 86 % 1018,7 hPa 0,0 l/m 0 min 0 min 77 W/m 37,7 km/h (5 Bft)
23.12.2014 12:12 11,4 C 10,6 C 87 % 1018,8 hPa 0,0 l/m 0 min 0 min 78 W/m 37,7 km/h (5 Bft)
23.12.2014 12:14 11,4 C 10,0 C 87 % 1018,7 hPa 0,0 l/m 0 min 0 min 83 W/m 39,7 km/h (6 Bft)
23.12.2014 12:16 11,4 C 10,0 C 87 % 1018,9 hPa 0,0 l/m 0 min 0 min 81 W/m 39,7 km/h (6 Bft)
23.12.2014 12:18 11,4 C 10,0 C 87 % 1019,0 hPa 0,0 l/m 0 min 0 min 83 W/m 48,1 km/h (6 Bft)
23.12.2014 12:20 11,4 C 10,6 C 87 % 1018,9 hPa 0,0 l/m 0 min 0 min 77 W/m 31,4 km/h (5 Bft)
23.12.2014 12:22 11,4 C 10,0 C 87 % 1018,8 hPa 0,0 l/m 0 min 0 min 78 W/m 39,7 km/h (6 Bft)
23.12.2014 12:24 11,4 C 10,0 C 88 % 1018,9 hPa 0,0 l/m 0 min 0 min 82 W/m 52,3 km/h (7 Bft)
23.12.2014 12:26 11,4 C 10,0 C 88 % 1018,8 hPa 0,0 l/m 0 min 0 min 85 W/m 54,4 km/h (7 Bft)
23.12.2014 12:28 11,4 C 10,0 C 88 % 1018,7 hPa 0,0 l/m 0 min 0 min 90 W/m 33,5 km/h (5 Bft)
23.12.2014 12:30 11,4 C 10,0 C 88 % 1018,7 hPa 0,0 l/m 0 min 0 min 79 W/m 37,7 km/h (5 Bft)
23.12.2014 12:32 11,4 C 10,0 C 88 % 1018,7 hPa 0,0 l/m 0 min 0 min 68 W/m 43,9 km/h (6 Bft)
23.12.2014 12:34 11,3 C 10,0 C 88 % 1018,7 hPa 0,0 l/m 0 min 0 min 83 W/m 41,8 km/h (6 Bft)
23.12.2014 12:36 11,3 C 10,0 C 88 % 1018,7 hPa 0,0 l/m 0 min 0 min 88 W/m 37,7 km/h (5 Bft)
23.12.2014 12:38 11,3 C 10,0 C 88 % 1018,7 hPa 0,0 l/m 0 min 0 min 90 W/m 43,9 km/h (6 Bft)
23.12.2014 12:40 11,3 C 10,0 C 89 % 1018,7 hPa 0,0 l/m 0 min 0 min 98 W/m 41,8 km/h (6 Bft)
23.12.2014 12:42 11,3 C 10,0 C 89 % 1018,6 hPa 0,0 l/m 0 min 0 min 110 W/m 46,0 km/h (6 Bft)
23.12.2014 12:44 11,3 C 10,0 C 89 % 1018,7 hPa 0,0 l/m 0 min 0 min 117 W/m 39,7 km/h (6 Bft)
23.12.2014 12:46 11,3 C 10,0 C 89 % 1018,6 hPa 0,0 l/m 0 min 0 min 113 W/m 37,7 km/h (5 Bft)
23.12.2014 12:48 11,3 C 10,0 C 89 % 1018,6 hPa 0,0 l/m 0 min 0 min 102 W/m 41,8 km/h (6 Bft)
23.12.2014 12:50 11,3 C 10,0 C 89 % 1018,6 hPa 0,0 l/m 0 min 0 min 96 W/m 37,7 km/h (5 Bft)
23.12.2014 12:52 11,3 C 10,0 C 89 % 1018,6 hPa 0,0 l/m 0 min 0 min 89 W/m 29,3 km/h (5 Bft)
23.12.2014 12:54 11,3 C 10,0 C 89 % 1018,5 hPa 0,0 l/m 0 min 0 min 80 W/m 41,8 km/h (6 Bft)
23.12.2014 12:56 11,2 C 10,0 C 89 % 1018,6 hPa 0,0 l/m 0 min 0 min 72 W/m 46,0 km/h (6 Bft)
23.12.2014 12:58 11,2 C 10,0 C 89 % 1018,5 hPa 0,0 l/m 0 min 0 min 70 W/m 33,5 km/h (5 Bft)
23.12.2014 13:00 11,2 C 10,0 C 89 % 1018,5 hPa 0,0 l/m 0 min 0 min 63 W/m 39,7 km/h (6 Bft)
23.12.2014 13:02 11,2 C 10,0 C 89 % 1018,5 hPa 0,0 l/m 0 min 0 min 59 W/m 37,7 km/h (5 Bft)
23.12.2014 13:04 11,2 C 10,0 C 89 % 1018,4 hPa 0,0 l/m 0 min 0 min 54 W/m 37,7 km/h (5 Bft)
23.12.2014 13:06 11,2 C 10,0 C 89 % 1018,4 hPa 0,0 l/m 0 min 0 min 45 W/m 56,5 km/h (7 Bft)
23.12.2014 13:08 11,1 C 10,0 C 89 % 1018,4 hPa 0,0 l/m 0 min 0 min 44 W/m 41,8 km/h (6 Bft)
23.12.2014 13:10 11,1 C 10,0 C 89 % 1018,4 hPa 0,0 l/m 0 min 0 min 42 W/m 46,0 km/h (6 Bft)
23.12.2014 13:12 11,1 C 10,0 C 89 % 1018,5 hPa 0,0 l/m 0 min 0 min 42 W/m 43,9 km/h (6 Bft)
23.12.2014 13:14 11,1 C 10,0 C 89 % 1018,4 hPa 0,0 l/m 0 min 0 min 42 W/m 37,7 km/h (5 Bft)
23.12.2014 13:16 11,1 C 10,0 C 89 % 1018,4 hPa 0,0 l/m 0 min 0 min 43 W/m 41,8 km/h (6 Bft)
23.12.2014 13:18 11,1 C 10,0 C 89 % 1018,3 hPa 0,0 l/m 0 min 0 min 45 W/m 35,6 km/h (5 Bft)
23.12.2014 13:20 11,1 C 10,0 C 89 % 1018,4 hPa 0,0 l/m 0 min 0 min 50 W/m 33,5 km/h (5 Bft)
23.12.2014 13:22 11,1 C 10,0 C 89 % 1018,4 hPa 0,0 l/m 0 min 0 min 43 W/m 27,2 km/h (4 Bft)
23.12.2014 13:24 11,1 C 10,0 C 90 % 1018,4 hPa 0,0 l/m 0 min 0 min 40 W/m 27,2 km/h (4 Bft)
23.12.2014 13:26 11,1 C 10,0 C 90 % 1018,4 hPa 0,0 l/m 0 min 0 min 40 W/m 31,4 km/h (5 Bft)
23.12.2014 13:28 11,1 C 10,0 C 90 % 1018,3 hPa 0,0 l/m 0 min 0 min 39 W/m 31,4 km/h (5 Bft)
23.12.2014 13:30 11,0 C 10,0 C 90 % 1018,4 hPa 0,0 l/m 0 min 0 min 41 W/m 31,4 km/h (5 Bft)
23.12.2014 13:32 11,0 C 10,0 C 90 % 1018,3 hPa 0,0 l/m 0 min 0 min 35 W/m 41,8 km/h (6 Bft)
23.12.2014 13:34 11,0 C 10,0 C 90 % 1018,3 hPa 0,0 l/m 0 min 0 min 30 W/m 41,8 km/h (6 Bft)
23.12.2014 13:36 11,0 C 10,0 C 90 % 1018,2 hPa 0,0 l/m 0 min 0 min 25 W/m 35,6 km/h (5 Bft)
23.12.2014 13:38 11,0 C 10,0 C 90 % 1018,3 hPa 0,0 l/m 0 min 0 min 29 W/m 31,4 km/h (5 Bft)
23.12.2014 13:40 11,0 C 10,0 C 90 % 1018,3 hPa 0,0 l/m 0 min 0 min 31 W/m 35,6 km/h (5 Bft)
23.12.2014 13:42 11,0 C 10,0 C 90 % 1018,3 hPa 0,0 l/m 0 min 0 min 32 W/m 31,4 km/h (5 Bft)
23.12.2014 13:44 11,0 C 10,0 C 90 % 1018,3 hPa 0,0 l/m 0 min 0 min 39 W/m 33,5 km/h (5 Bft)
23.12.2014 13:46 11,0 C 10,0 C 90 % 1018,3 hPa 0,0 l/m 0 min 0 min 40 W/m 37,7 km/h (5 Bft)
23.12.2014 13:48 11,0 C 10,0 C 90 % 1018,3 hPa 0,0 l/m 0 min 0 min 48 W/m 29,3 km/h (5 Bft)
23.12.2014 13:50 11,0 C 10,0 C 90 % 1018,2 hPa 0,0 l/m 0 min 0 min 58 W/m 33,5 km/h (5 Bft)
23.12.2014 13:52 11,0 C 10,0 C 90 % 1018,2 hPa 0,0 l/m 0 min 0 min 62 W/m 33,5 km/h (5 Bft)
23.12.2014 13:54 11,0 C 10,0 C 90 % 1018,2 hPa 0,0 l/m 0 min 0 min 58 W/m 41,8 km/h (6 Bft)
23.12.2014 13:56 11,0 C 10,0 C 90 % 1018,2 hPa 0,0 l/m 0 min 0 min 60 W/m 29,3 km/h (5 Bft)
23.12.2014 13:58 11,0 C 10,0 C 90 % 1018,2 hPa 0,0 l/m 0 min 0 min 65 W/m 29,3 km/h (5 Bft)
23.12.2014 14:00 11,1 C 10,0 C 90 % 1018,0 hPa 0,0 l/m 0 min 0 min 58 W/m 31,4 km/h (5 Bft)
23.12.2014 14:02 11,1 C 10,0 C 90 % 1018,1 hPa 0,0 l/m 0 min 0 min 60 W/m 46,0 km/h (6 Bft)
23.12.2014 14:04 11,1 C 10,0 C 90 % 1018,1 hPa 0,0 l/m 0 min 0 min 53 W/m 25,1 km/h (4 Bft)
23.12.2014 14:06 11,1 C 10,0 C 90 % 1018,0 hPa 0,0 l/m 0 min 0 min 51 W/m 29,3 km/h (5 Bft)
23.12.2014 14:08 11,1 C 10,0 C 90 % 1018,0 hPa 0,0 l/m 0 min 0 min 48 W/m 25,1 km/h (4 Bft)
23.12.2014 14:10 11,1 C 10,0 C 90 % 1018,0 hPa 0,0 l/m 0 min 0 min 43 W/m 29,3 km/h (5 Bft)
23.12.2014 14:12 11,1 C 10,0 C 90 % 1018,0 hPa 0,0 l/m 0 min 0 min 41 W/m 33,5 km/h (5 Bft)
23.12.2014 14:14 11,1 C 10,0 C 90 % 1018,0 hPa 0,0 l/m 0 min 0 min 42 W/m 29,3 km/h (5 Bft)
23.12.2014 14:16 11,1 C 10,0 C 89 % 1018,1 hPa 0,0 l/m 0 min 0 min 33 W/m 41,8 km/h (6 Bft)
23.12.2014 14:18 11,1 C 10,0 C 89 % 1018,0 hPa 0,0 l/m 0 min 0 min 30 W/m 54,4 km/h (7 Bft)
23.12.2014 14:20 11,1 C 10,0 C 89 % 1018,0 hPa 0,0 l/m 0 min 0 min 26 W/m 39,7 km/h (6 Bft)
23.12.2014 14:22 11,1 C 10,0 C 89 % 1018,0 hPa 0,0 l/m 0 min 0 min 26 W/m 46,0 km/h (6 Bft)
23.12.2014 14:24 11,1 C 10,0 C 88 % 1018,1 hPa 0,0 l/m 0 min 0 min 32 W/m 39,7 km/h (6 Bft)
23.12.2014 14:26 11,1 C 10,0 C 88 % 1017,9 hPa 0,0 l/m 0 min 0 min 39 W/m 43,9 km/h (6 Bft)
23.12.2014 14:28 11,1 C 10,0 C 88 % 1018,0 hPa 0,0 l/m 0 min 0 min 39 W/m 37,7 km/h (5 Bft)
23.12.2014 14:30 11,2 C 10,0 C 88 % 1018,0 hPa 0,0 l/m 0 min 0 min 39 W/m 35,6 km/h (5 Bft)
23.12.2014 14:32 11,2 C 10,0 C 88 % 1018,0 hPa 0,0 l/m 0 min 0 min 43 W/m 46,0 km/h (6 Bft)
23.12.2014 14:34 11,2 C 10,0 C 88 % 1017,9 hPa 0,0 l/m 0 min 0 min 47 W/m 54,4 km/h (7 Bft)
23.12.2014 14:36 11,2 C 10,0 C 88 % 1017,8 hPa 0,0 l/m 0 min 0 min 46 W/m 39,7 km/h (6 Bft)
23.12.2014 14:38 11,2 C 10,0 C 88 % 1017,9 hPa 0,0 l/m 0 min 0 min 41 W/m 31,4 km/h (5 Bft)
23.12.2014 14:40 11,2 C 10,0 C 88 % 1017,9 hPa 0,0 l/m 0 min 0 min 40 W/m 46,0 km/h (6 Bft)
23.12.2014 14:42 11,2 C 10,0 C 88 % 1017,9 hPa 0,0 l/m 0 min 0 min 44 W/m 37,7 km/h (5 Bft)
23.12.2014 14:44 11,2 C 10,0 C 88 % 1017,8 hPa 0,0 l/m 0 min 0 min 43 W/m 39,7 km/h (6 Bft)
23.12.2014 14:46 11,2 C 10,0 C 88 % 1017,8 hPa 0,0 l/m 0 min 0 min 47 W/m 33,5 km/h (5 Bft)
23.12.2014 14:48 11,2 C 10,0 C 88 % 1017,8 hPa 0,0 l/m 0 min 0 min 47 W/m 37,7 km/h (5 Bft)
23.12.2014 14:50 11,2 C 10,0 C 88 % 1017,8 hPa 0,0 l/m 0 min 0 min 46 W/m 33,5 km/h (5 Bft)
23.12.2014 14:52 11,2 C 10,0 C 89 % 1017,8 hPa 0,0 l/m 0 min 0 min 46 W/m 43,9 km/h (6 Bft)
23.12.2014 14:54 11,2 C 10,0 C 89 % 1017,9 hPa 0,0 l/m 0 min 0 min 44 W/m 39,7 km/h (6 Bft)
23.12.2014 14:56 11,2 C 10,0 C 89 % 1017,8 hPa 0,0 l/m 0 min 0 min 45 W/m 31,4 km/h (5 Bft)
23.12.2014 14:58 11,2 C 10,0 C 89 % 1017,9 hPa 0,0 l/m 0 min 0 min 52 W/m 27,2 km/h (4 Bft)
23.12.2014 15:00 11,2 C 10,0 C 89 % 1017,8 hPa 0,0 l/m 0 min 0 min 45 W/m 41,8 km/h (6 Bft)
23.12.2014 15:02 11,2 C 10,0 C 89 % 1018,0 hPa 0,0 l/m 0 min 0 min 43 W/m 43,9 km/h (6 Bft)
23.12.2014 15:04 11,2 C 10,0 C 89 % 1017,9 hPa 0,0 l/m 0 min 0 min 37 W/m 31,4 km/h (5 Bft)
23.12.2014 15:06 11,2 C 10,0 C 89 % 1017,9 hPa 0,0 l/m 0 min 0 min 36 W/m 33,5 km/h (5 Bft)
23.12.2014 15:08 11,2 C 10,0 C 89 % 1018,0 hPa 0,0 l/m 0 min 0 min 35 W/m 23,0 km/h (4 Bft)
23.12.2014 15:10 11,1 C 10,0 C 89 % 1017,9 hPa 0,0 l/m 0 min 0 min 29 W/m 31,4 km/h (5 Bft)
23.12.2014 15:12 11,1 C 10,0 C 89 % 1017,9 hPa 0,0 l/m 0 min 0 min 26 W/m 35,6 km/h (5 Bft)
23.12.2014 15:14 11,1 C 10,0 C 89 % 1017,9 hPa 0,0 l/m 0 min 0 min 31 W/m 37,7 km/h (5 Bft)
23.12.2014 15:16 11,1 C 10,0 C 89 % 1018,0 hPa 0,0 l/m 0 min 0 min 34 W/m 29,3 km/h (5 Bft)
23.12.2014 15:18 11,1 C 10,0 C 89 % 1018,0 hPa 0,0 l/m 0 min 0 min 36 W/m 39,7 km/h (6 Bft)
23.12.2014 15:20 11,1 C 10,0 C 89 % 1017,9 hPa 0,0 l/m 0 min 0 min 35 W/m 37,7 km/h (5 Bft)
23.12.2014 15:22 11,1 C 10,0 C 89 % 1018,1 hPa 0,0 l/m 0 min 0 min 31 W/m 43,9 km/h (6 Bft)
23.12.2014 15:24 11,1 C 10,0 C 89 % 1018,0 hPa 0,0 l/m 0 min 0 min 34 W/m 29,3 km/h (5 Bft)
23.12.2014 15:26 11,1 C 10,0 C 89 % 1018,0 hPa 0,0 l/m 0 min 0 min 27 W/m 27,2 km/h (4 Bft)
23.12.2014 15:28 11,1 C 10,0 C 89 % 1017,9 hPa 0,0 l/m 0 min 0 min 23 W/m 33,5 km/h (5 Bft)
23.12.2014 15:30 11,1 C 10,0 C 89 % 1018,0 hPa 0,0 l/m 0 min 0 min 20 W/m 29,3 km/h (5 Bft)
23.12.2014 15:32 11,0 C 10,0 C 89 % 1018,0 hPa 0,0 l/m 0 min 0 min 15 W/m 41,8 km/h (6 Bft)
23.12.2014 15:34 11,0 C 10,0 C 89 % 1018,0 hPa 0,0 l/m 0 min 0 min 15 W/m 31,4 km/h (5 Bft)
23.12.2014 15:36 11,0 C 9,4 C 89 % 1018,0 hPa 0,0 l/m 0 min 0 min 12 W/m 31,4 km/h (5 Bft)
23.12.2014 15:38 11,0 C 9,4 C 89 % 1017,9 hPa 0,0 l/m 0 min 0 min 14 W/m 33,5 km/h (5 Bft)
23.12.2014 15:40 11,0 C 9,4 C 89 % 1018,0 hPa 0,0 l/m 0 min 0 min 11 W/m 41,8 km/h (6 Bft)
23.12.2014 15:42 10,9 C 9,4 C 89 % 1018,0 hPa 0,0 l/m 0 min 0 min 12 W/m 41,8 km/h (6 Bft)
23.12.2014 15:44 10,9 C 9,4 C 89 % 1018,1 hPa 0,0 l/m 0 min 0 min 14 W/m 33,5 km/h (5 Bft)
23.12.2014 15:46 10,9 C 9,4 C 90 % 1018,0 hPa 0,0 l/m 0 min 0 min 13 W/m 37,7 km/h (5 Bft)
23.12.2014 15:48 10,9 C 9,4 C 90 % 1018,0 hPa 0,0 l/m 0 min 0 min 17 W/m 33,5 km/h (5 Bft)
23.12.2014 15:50 10,9 C 9,4 C 90 % 1018,0 hPa 0,0 l/m 0 min 0 min 16 W/m 31,4 km/h (5 Bft)
23.12.2014 15:52 10,9 C 9,4 C 90 % 1018,0 hPa 0,0 l/m 0 min 0 min 12 W/m 25,1 km/h (4 Bft)
23.12.2014 15:54 10,9 C 9,4 C 90 % 1018,0 hPa 0,0 l/m 0 min 0 min 12 W/m 33,5 km/h (5 Bft)
23.12.2014 15:56 10,8 C 8,9 C 90 % 1018,2 hPa 0,0 l/m 0 min 0 min 12 W/m 35,6 km/h (5 Bft)
23.12.2014 15:58 10,8 C 8,9 C 90 % 1018,2 hPa 0,0 l/m 0 min 0 min 12 W/m 29,3 km/h (5 Bft)
23.12.2014 16:00 10,8 C 8,9 C 90 % 1018,2 hPa 0,0 l/m 0 min 0 min 10 W/m 29,3 km/h (5 Bft)
23.12.2014 16:02 10,8 C 8,9 C 91 % 1018,1 hPa 0,0 l/m 0 min 0 min 9 W/m 29,3 km/h (5 Bft)
23.12.2014 16:04 10,8 C 8,9 C 91 % 1018,1 hPa 0,0 l/m 0 min 0 min 10 W/m 33,5 km/h (5 Bft)
23.12.2014 16:06 10,7 C 8,9 C 91 % 1018,0 hPa 0,0 l/m 0 min 0 min 10 W/m 25,1 km/h (4 Bft)
23.12.2014 16:08 10,7 C 8,9 C 91 % 1018,2 hPa 0,0 l/m 0 min 0 min 6 W/m 25,1 km/h (4 Bft)
23.12.2014 16:10 10,7 C 8,9 C 91 % 1018,2 hPa 0,0 l/m 0 min 0 min 3 W/m 39,7 km/h (6 Bft)
23.12.2014 16:12 10,7 C 8,9 C 91 % 1018,2 hPa 0,0 l/m 0 min 0 min 0 W/m 27,2 km/h (4 Bft)
23.12.2014 16:14 10,6 C 8,9 C 91 % 1018,2 hPa 0,0 l/m 0 min 0 min 0 W/m 33,5 km/h (5 Bft)
23.12.2014 16:16 10,6 C 8,9 C 91 % 1018,2 hPa 0,0 l/m 0 min 2 min 0 W/m 27,2 km/h (4 Bft)
23.12.2014 16:18 10,6 C 8,9 C 92 % 1018,2 hPa 0,0 l/m 0 min 2 min 0 W/m 25,1 km/h (4 Bft)
23.12.2014 16:20 10,6 C 8,9 C 92 % 1018,2 hPa 0,0 l/m 0 min 0 min 0 W/m 33,5 km/h (5 Bft)
23.12.2014 16:22 10,5 C 8,9 C 92 % 1018,2 hPa 0,0 l/m 0 min 0 min 0 W/m 35,6 km/h (5 Bft)
23.12.2014 16:24 10,5 C 8,9 C 92 % 1018,2 hPa 0,0 l/m 0 min 0 min 3 W/m 48,1 km/h (6 Bft)
23.12.2014 16:26 10,5 C 8,9 C 92 % 1018,2 hPa 0,0 l/m 0 min 0 min 2 W/m 46,0 km/h (6 Bft)
23.12.2014 16:28 10,5 C 8,9 C 92 % 1018,1 hPa 0,0 l/m 0 min 0 min 0 W/m 35,6 km/h (5 Bft)
23.12.2014 16:30 10,5 C 8,9 C 92 % 1018,1 hPa 0,0 l/m 0 min 0 min 0 W/m 33,5 km/h (5 Bft)
23.12.2014 16:32 10,5 C 8,9 C 92 % 1018,1 hPa 0,0 l/m 0 min 0 min 0 W/m 33,5 km/h (5 Bft)
23.12.2014 16:34 10,4 C 8,9 C 92 % 1018,0 hPa 0,0 l/m 0 min 0 min 0 W/m 29,3 km/h (5 Bft)
23.12.2014 16:36 10,4 C 8,9 C 92 % 1017,9 hPa 0,0 l/m 0 min 0 min 0 W/m 25,1 km/h (4 Bft)
23.12.2014 16:38 10,4 C 8,9 C 92 % 1018,0 hPa 0,0 l/m 0 min 0 min 3 W/m 27,2 km/h (4 Bft)
23.12.2014 16:40 10,4 C 8,9 C 92 % 1018,1 hPa 0,0 l/m 0 min 0 min 1 W/m 29,3 km/h (5 Bft)
23.12.2014 16:42 10,4 C 8,9 C 92 % 1018,0 hPa 0,0 l/m 0 min 0 min 0 W/m 25,1 km/h (4 Bft)
23.12.2014 16:44 10,4 C 8,9 C 92 % 1018,2 hPa 0,0 l/m 0 min 0 min 0 W/m 31,4 km/h (5 Bft)
23.12.2014 16:46 10,4 C 8,9 C 93 % 1018,1 hPa 0,0 l/m 0 min 0 min 0 W/m 33,5 km/h (5 Bft)
23.12.2014 16:48 10,3 C 8,9 C 93 % 1018,2 hPa 0,0 l/m 0 min 0 min 0 W/m 25,1 km/h (4 Bft)
23.12.2014 16:50 10,3 C 8,9 C 93 % 1018,3 hPa 0,0 l/m 0 min 0 min 0 W/m 33,5 km/h (5 Bft)
23.12.2014 16:52 10,3 C 8,3 C 93 % 1018,3 hPa 0,0 l/m 0 min 0 min 0 W/m 20,9 km/h (4 Bft)
23.12.2014 16:54 10,3 C 8,3 C 93 % 1018,2 hPa 0,0 l/m 0 min 2 min 0 W/m 20,9 km/h (4 Bft)
23.12.2014 16:56 10,3 C 8,3 C 93 % 1018,3 hPa 0,0 l/m 0 min 0 min 0 W/m 25,1 km/h (4 Bft)
23.12.2014 16:58 10,3 C 8,3 C 93 % 1018,3 hPa 0,0 l/m 0 min 0 min 0 W/m 20,9 km/h (4 Bft)
23.12.2014 17:00 10,2 C 8,3 C 93 % 1018,3 hPa 0,0 l/m 0 min 0 min 0 W/m 20,9 km/h (4 Bft)
23.12.2014 17:02 10,2 C 8,3 C 93 % 1018,3 hPa 0,0 l/m 0 min 0 min 0 W/m 20,9 km/h (4 Bft)
23.12.2014 17:04 10,2 C 8,3 C 93 % 1018,2 hPa 0,0 l/m 0 min 0 min 0 W/m 23,0 km/h (4 Bft)
23.12.2014 17:06 10,2 C 8,3 C 94 % 1018,3 hPa 0,0 l/m 0 min 0 min 0 W/m 27,2 km/h (4 Bft)
23.12.2014 17:08 10,1 C 8,3 C 94 % 1018,2 hPa 0,0 l/m 0 min 0 min 0 W/m 20,9 km/h (4 Bft)
23.12.2014 17:10 10,1 C 8,3 C 94 % 1018,2 hPa 0,0 l/m 0 min 0 min 0 W/m 33,5 km/h (5 Bft)
23.12.2014 17:12 10,1 C 8,3 C 94 % 1018,0 hPa 0,0 l/m 0 min 0 min 0 W/m 20,9 km/h (4 Bft)
23.12.2014 17:14 10,1 C 8,3 C 94 % 1018,0 hPa 0,0 l/m 0 min 0 min 0 W/m 23,0 km/h (4 Bft)
23.12.2014 17:16 10,0 C 8,3 C 94 % 1017,9 hPa 0,0 l/m 0 min 0 min 0 W/m 23,0 km/h (4 Bft)
23.12.2014 17:18 10,0 C 8,3 C 94 % 1017,9 hPa 0,0 l/m 0 min 0 min 0 W/m 23,0 km/h (4 Bft)
23.12.2014 17:20 10,0 C 8,3 C 94 % 1017,9 hPa 0,0 l/m 0 min 0 min 0 W/m 23,0 km/h (4 Bft)
23.12.2014 17:22 10,0 C 8,3 C 94 % 1017,9 hPa 0,0 l/m 0 min 0 min 0 W/m 14,6 km/h (3 Bft)
23.12.2014 17:24 9,9 C 8,3 C 94 % 1017,9 hPa 0,0 l/m 0 min 0 min 0 W/m 14,6 km/h (3 Bft)
23.12.2014 17:26 9,9 C 8,3 C 94 % 1017,8 hPa 0,0 l/m 0 min 0 min 0 W/m 18,8 km/h (3 Bft)
23.12.2014 17:28 9,9 C 8,3 C 94 % 1017,8 hPa 0,0 l/m 0 min 0 min 0 W/m 18,8 km/h (3 Bft)
23.12.2014 17:30 9,9 C 8,3 C 94 % 1017,8 hPa 0,0 l/m 0 min 0 min 0 W/m 12,6 km/h (3 Bft)
23.12.2014 17:32 9,9 C 8,3 C 94 % 1017,8 hPa 0,0 l/m 0 min 0 min 0 W/m 16,7 km/h (3 Bft)
23.12.2014 17:34 9,9 C 8,3 C 94 % 1017,8 hPa 0,0 l/m 0 min 0 min 0 W/m 23,0 km/h (4 Bft)
23.12.2014 17:36 9,9 C 8,3 C 94 % 1017,8 hPa 0,0 l/m 0 min 0 min 0 W/m 18,8 km/h (3 Bft)
23.12.2014 17:38 9,9 C 8,3 C 94 % 1017,8 hPa 0,0 l/m 0 min 0 min 0 W/m 16,7 km/h (3 Bft)
23.12.2014 17:40 9,9 C 8,3 C 94 % 1017,8 hPa 0,0 l/m 0 min 0 min 0 W/m 16,7 km/h (3 Bft)
23.12.2014 17:42 9,9 C 8,3 C 94 % 1017,8 hPa 0,0 l/m 0 min 0 min 0 W/m 23,0 km/h (4 Bft)
23.12.2014 17:44 9,9 C 8,3 C 94 % 1017,8 hPa 0,0 l/m 0 min 0 min 0 W/m 20,9 km/h (4 Bft)
23.12.2014 17:46 9,9 C 8,9 C 94 % 1017,8 hPa 0,0 l/m 0 min 0 min 0 W/m 23,0 km/h (4 Bft)
23.12.2014 17:48 9,9 C 8,9 C 94 % 1017,8 hPa 0,0 l/m 0 min 0 min 0 W/m 25,1 km/h (4 Bft)
23.12.2014 17:50 10,0 C 8,9 C 94 % 1017,8 hPa 0,0 l/m 0 min 0 min 0 W/m 35,6 km/h (5 Bft)
23.12.2014 17:52 10,0 C 8,9 C 94 % 1017,7 hPa 0,0 l/m 0 min 0 min 0 W/m 25,1 km/h (4 Bft)
23.12.2014 17:54 10,1 C 8,9 C 93 % 1017,7 hPa 0,0 l/m 0 min 0 min 0 W/m 27,2 km/h (4 Bft)
23.12.2014 17:56 10,1 C 8,9 C 93 % 1017,8 hPa 0,0 l/m 0 min 0 min 0 W/m 35,6 km/h (5 Bft)
23.12.2014 17:58 10,1 C 9,4 C 93 % 1017,8 hPa 0,0 l/m 0 min 0 min 0 W/m 31,4 km/h (5 Bft)
23.12.2014 18:00 10,2 C 9,4 C 93 % 1017,7 hPa 0,0 l/m 0 min 0 min 0 W/m 29,3 km/h (5 Bft)
23.12.2014 18:02 10,2 C 9,4 C 92 % 1017,7 hPa 0,0 l/m 0 min 0 min 0 W/m 29,3 km/h (5 Bft)
23.12.2014 18:05 10,3 C 9,4 C 92 % 1017,7 hPa 0,0 l/m 0 min 0 min 0 W/m 31,4 km/h (5 Bft)
23.12.2014 18:08 10,3 C 9,4 C 92 % 1017,8 hPa 0,0 l/m 0 min 0 min 0 W/m 31,4 km/h (5 Bft)
23.12.2014 18:10 10,3 C 9,4 C 91 % 1017,7 hPa 0,0 l/m 0 min 0 min 0 W/m 27,2 km/h (4 Bft)
23.12.2014 18:12 10,4 C 9,4 C 91 % 1017,7 hPa 0,0 l/m 0 min 0 min 0 W/m 31,4 km/h (5 Bft)
23.12.2014 18:14 10,4 C 9,4 C 91 % 1017,7 hPa 0,0 l/m 0 min 0 min 0 W/m 27,2 km/h (4 Bft)
23.12.2014 18:16 10,4 C 8,9 C 91 % 1017,7 hPa 0,0 l/m 0 min 0 min 0 W/m 23,0 km/h (4 Bft)
23.12.2014 18:18 10,4 C 8,9 C 91 % 1017,7 hPa 0,0 l/m 0 min 0 min 0 W/m 31,4 km/h (5 Bft)
23.12.2014 18:20 10,4 C 8,9 C 91 % 1017,8 hPa 0,0 l/m 0 min 0 min 0 W/m 25,1 km/h (4 Bft)
23.12.2014 18:22 10,4 C 8,9 C 91 % 1017,8 hPa 0,0 l/m 0 min 0 min 0 W/m 27,2 km/h (4 Bft)
23.12.2014 18:24 10,4 C 8,9 C 90 % 1017,7 hPa 0,0 l/m 0 min 0 min 0 W/m 25,1 km/h (4 Bft)
23.12.2014 18:26 10,4 C 8,9 C 90 % 1017,8 hPa 0,0 l/m 0 min 0 min 0 W/m 27,2 km/h (4 Bft)
23.12.2014 18:28 10,4 C 8,9 C 90 % 1017,7 hPa 0,0 l/m 0 min 0 min 0 W/m 25,1 km/h (4 Bft)
23.12.2014 18:30 10,4 C 8,9 C 90 % 1017,8 hPa 0,0 l/m 0 min 0 min 0 W/m 29,3 km/h (5 Bft)
23.12.2014 18:32 10,4 C 8,9 C 90 % 1017,8 hPa 0,0 l/m 0 min 0 min 0 W/m 18,8 km/h (3 Bft)
23.12.2014 18:34 10,4 C 8,9 C 90 % 1017,7 hPa 0,0 l/m 0 min 0 min 0 W/m 31,4 km/h (5 Bft)
23.12.2014 18:36 10,4 C 8,9 C 90 % 1017,8 hPa 0,0 l/m 0 min 0 min 0 W/m 23,0 km/h (4 Bft)
23.12.2014 18:38 10,4 C 8,9 C 90 % 1017,7 hPa 0,0 l/m 0 min 0 min 0 W/m 23,0 km/h (4 Bft)
23.12.2014 18:40 10,3 C 8,9 C 90 % 1017,8 hPa 0,0 l/m 0 min 0 min 0 W/m 29,3 km/h (5 Bft)
23.12.2014 18:42 10,3 C 8,9 C 90 % 1017,8 hPa 0,0 l/m 0 min 0 min 0 W/m 29,3 km/h (5 Bft)
23.12.2014 18:44 10,3 C 8,9 C 90 % 1017,8 hPa 0,0 l/m 0 min 0 min 0 W/m 29,3 km/h (5 Bft)
23.12.2014 18:46 10,3 C 8,9 C 90 % 1017,8 hPa 0,0 l/m 0 min 0 min 0 W/m 29,3 km/h (5 Bft)
23.12.2014 18:48 10,3 C 8,9 C 90 % 1017,8 hPa 0,0 l/m 0 min 0 min 0 W/m 33,5 km/h (5 Bft)
23.12.2014 18:50 10,3 C 8,9 C 90 % 1017,8 hPa 0,0 l/m 0 min 0 min 0 W/m 27,2 km/h (4 Bft)
23.12.2014 18:52 10,3 C 8,9 C 90 % 1017,8 hPa 0,0 l/m 0 min 0 min 0 W/m 29,3 km/h (5 Bft)
23.12.2014 18:54 10,3 C 8,9 C 90 % 1017,8 hPa 0,0 l/m 0 min 0 min 0 W/m 20,9 km/h (4 Bft)
23.12.2014 18:56 10,3 C 8,9 C 90 % 1017,8 hPa 0,0 l/m 0 min 0 min 0 W/m 27,2 km/h (4 Bft)
23.12.2014 18:58 10,3 C 8,9 C 90 % 1017,8 hPa 0,0 l/m 0 min 0 min 0 W/m 31,4 km/h (5 Bft)
23.12.2014 19:00 10,3 C 8,9 C 90 % 1017,8 hPa 0,0 l/m 0 min 0 min 0 W/m 29,3 km/h (5 Bft)
23.12.2014 19:02 10,3 C 8,9 C 90 % 1017,8 hPa 0,0 l/m 0 min 0 min 0 W/m 25,1 km/h (4 Bft)
23.12.2014 19:04 10,3 C 8,9 C 90 % 1017,8 hPa 0,0 l/m 0 min 0 min 0 W/m 29,3 km/h (5 Bft)
23.12.2014 19:06 10,3 C 8,9 C 89 % 1017,8 hPa 0,0 l/m 0 min 0 min 0 W/m 20,9 km/h (4 Bft)
23.12.2014 19:08 10,3 C 8,9 C 89 % 1017,8 hPa 0,0 l/m 0 min 0 min 0 W/m 27,2 km/h (4 Bft)
23.12.2014 19:10 10,3 C 8,9 C 89 % 1017,8 hPa 0,0 l/m 0 min 0 min 0 W/m 37,7 km/h (5 Bft)
23.12.2014 19:12 10,3 C 8,9 C 89 % 1017,7 hPa 0,0 l/m 0 min 0 min 0 W/m 33,5 km/h (5 Bft)
23.12.2014 19:14 10,3 C 8,9 C 89 % 1017,8 hPa 0,0 l/m 0 min 0 min 0 W/m 29,3 km/h (5 Bft)
23.12.2014 19:16 10,3 C 8,9 C 89 % 1017,8 hPa 0,0 l/m 0 min 0 min 0 W/m 29,3 km/h (5 Bft)
23.12.2014 19:18 10,3 C 8,9 C 89 % 1017,8 hPa 0,0 l/m 0 min 0 min 0 W/m 29,3 km/h (5 Bft)
23.12.2014 19:20 10,3 C 8,9 C 89 % 1017,8 hPa 0,0 l/m 0 min 0 min 0 W/m 29,3 km/h (5 Bft)
23.12.2014 19:22 10,3 C 8,9 C 89 % 1017,8 hPa 0,0 l/m 0 min 0 min 0 W/m 25,1 km/h (4 Bft)
23.12.2014 19:24 10,3 C 8,9 C 89 % 1017,8 hPa 0,0 l/m 0 min 0 min 0 W/m 27,2 km/h (4 Bft)
23.12.2014 19:26 10,3 C 8,9 C 89 % 1017,8 hPa 0,0 l/m 0 min 0 min 0 W/m 27,2 km/h (4 Bft)
23.12.2014 19:28 10,3 C 8,9 C 89 % 1017,8 hPa 0,0 l/m 0 min 0 min 0 W/m 27,2 km/h (4 Bft)
23.12.2014 19:30 10,3 C 8,9 C 89 % 1017,8 hPa 0,0 l/m 0 min 0 min 0 W/m 29,3 km/h (5 Bft)
23.12.2014 19:32 10,3 C 8,9 C 88 % 1017,7 hPa 0,0 l/m 0 min 0 min 0 W/m 35,6 km/h (5 Bft)
23.12.2014 19:34 10,4 C 8,9 C 88 % 1017,7 hPa 0,0 l/m 0 min 0 min 0 W/m 29,3 km/h (5 Bft)
23.12.2014 19:36 10,3 C 8,9 C 88 % 1017,8 hPa 0,0 l/m 0 min 0 min 0 W/m 35,6 km/h (5 Bft)
23.12.2014 19:38 10,3 C 8,9 C 88 % 1017,8 hPa 0,0 l/m 0 min 0 min 0 W/m 25,1 km/h (4 Bft)
23.12.2014 19:40 10,3 C 8,9 C 88 % 1017,7 hPa 0,0 l/m 0 min 0 min 0 W/m 25,1 km/h (4 Bft)
23.12.2014 19:42 10,3 C 8,9 C 88 % 1017,8 hPa 0,0 l/m 0 min 0 min 0 W/m 25,1 km/h (4 Bft)
23.12.2014 19:44 10,3 C 8,9 C 88 % 1017,7 hPa 0,0 l/m 0 min 0 min 0 W/m 23,0 km/h (4 Bft)
23.12.2014 19:46 10,3 C 8,9 C 88 % 1017,8 hPa 0,0 l/m 0 min 0 min 0 W/m 23,0 km/h (4 Bft)
23.12.2014 19:48 10,3 C 8,9 C 88 % 1017,8 hPa 0,0 l/m 0 min 0 min 0 W/m 31,4 km/h (5 Bft)
23.12.2014 19:50 10,3 C 8,9 C 88 % 1017,8 hPa 0,0 l/m 0 min 0 min 0 W/m 29,3 km/h (5 Bft)
23.12.2014 19:52 10,3 C 8,9 C 88 % 1017,8 hPa 0,0 l/m 0 min 0 min 0 W/m 29,3 km/h (5 Bft)
23.12.2014 19:54 10,3 C 8,9 C 88 % 1017,8 hPa 0,0 l/m 0 min 0 min 0 W/m 29,3 km/h (5 Bft)
23.12.2014 19:56 10,3 C 8,9 C 88 % 1017,8 hPa 0,0 l/m 0 min 0 min 0 W/m 27,2 km/h (4 Bft)
23.12.2014 19:58 10,2 C 8,9 C 88 % 1017,7 hPa 0,0 l/m 0 min 0 min 0 W/m 31,4 km/h (5 Bft)
23.12.2014 20:00 10,2 C 8,9 C 88 % 1017,7 hPa 0,0 l/m 0 min 0 min 0 W/m 23,0 km/h (4 Bft)
23.12.2014 20:02 10,2 C 8,9 C 88 % 1017,8 hPa 0,0 l/m 0 min 0 min 0 W/m 35,6 km/h (5 Bft)
23.12.2014 20:04 10,2 C 8,9 C 88 % 1017,8 hPa 0,0 l/m 0 min 0 min 0 W/m 25,1 km/h (4 Bft)
23.12.2014 20:06 10,2 C 8,9 C 88 % 1017,8 hPa 0,0 l/m 0 min 0 min 0 W/m 27,2 km/h (4 Bft)
23.12.2014 20:08 10,2 C 8,9 C 88 % 1017,8 hPa 0,0 l/m 0 min 0 min 0 W/m 25,1 km/h (4 Bft)
23.12.2014 20:10 10,2 C 8,9 C 88 % 1017,8 hPa 0,0 l/m 0 min 0 min 0 W/m 16,7 km/h (3 Bft)
23.12.2014 20:12 10,2 C 8,9 C 88 % 1017,8 hPa 0,0 l/m 0 min 0 min 0 W/m 18,8 km/h (3 Bft)
23.12.2014 20:14 10,2 C 8,9 C 88 % 1017,8 hPa 0,0 l/m 0 min 0 min 0 W/m 27,2 km/h (4 Bft)
23.12.2014 20:16 10,2 C 8,9 C 88 % 1017,7 hPa 0,0 l/m 0 min 0 min 0 W/m 18,8 km/h (3 Bft)
23.12.2014 20:18 10,2 C 8,9 C 88 % 1017,8 hPa 0,0 l/m 0 min 0 min 0 W/m 23,0 km/h (4 Bft)
23.12.2014 20:20 10,2 C 8,9 C 88 % 1017,8 hPa 0,0 l/m 0 min 0 min 0 W/m 33,5 km/h (5 Bft)
23.12.2014 20:22 10,2 C 8,9 C 88 % 1017,7 hPa 0,0 l/m 0 min 0 min 0 W/m 25,1 km/h (4 Bft)
23.12.2014 20:24 10,2 C 8,9 C 88 % 1017,7 hPa 0,0 l/m 0 min 0 min 0 W/m 33,5 km/h (5 Bft)
23.12.2014 20:26 10,2 C 8,9 C 88 % 1017,7 hPa 0,0 l/m 0 min 0 min 0 W/m 31,4 km/h (5 Bft)
23.12.2014 20:28 10,1 C 8,9 C 88 % 1017,6 hPa 0,0 l/m 0 min 0 min 0 W/m 31,4 km/h (5 Bft)
23.12.2014 20:30 10,2 C 8,9 C 88 % 1017,6 hPa 0,0 l/m 0 min 0 min 0 W/m 29,3 km/h (5 Bft)
23.12.2014 20:32 10,1 C 8,9 C 89 % 1017,6 hPa 0,0 l/m 0 min 0 min 0 W/m 43,9 km/h (6 Bft)
23.12.2014 20:34 10,1 C 8,9 C 88 % 1017,7 hPa 0,0 l/m 0 min 0 min 0 W/m 39,7 km/h (6 Bft)
23.12.2014 20:36 10,1 C 8,9 C 88 % 1017,6 hPa 0,0 l/m 0 min 0 min 0 W/m 35,6 km/h (5 Bft)
23.12.2014 20:38 10,2 C 8,9 C 88 % 1017,6 hPa 0,0 l/m 0 min 0 min 0 W/m 41,8 km/h (6 Bft)
23.12.2014 20:40 10,1 C 8,9 C 88 % 1017,6 hPa 0,0 l/m 0 min 0 min 0 W/m 37,7 km/h (5 Bft)
23.12.2014 20:42 10,1 C 8,9 C 88 % 1017,6 hPa 0,0 l/m 0 min 0 min 0 W/m 39,7 km/h (6 Bft)
23.12.2014 20:44 10,1 C 8,9 C 88 % 1017,6 hPa 0,0 l/m 0 min 0 min 0 W/m 31,4 km/h (5 Bft)
23.12.2014 20:46 10,1 C 8,9 C 88 % 1017,6 hPa 0,0 l/m 0 min 0 min 0 W/m 25,1 km/h (4 Bft)
23.12.2014 20:48 10,1 C 8,9 C 88 % 1017,5 hPa 0,0 l/m 0 min 0 min 0 W/m 33,5 km/h (5 Bft)
23.12.2014 20:50 10,1 C 8,9 C 88 % 1017,4 hPa 0,0 l/m 0 min 0 min 0 W/m 27,2 km/h (4 Bft)
23.12.2014 20:52 10,1 C 8,9 C 88 % 1017,4 hPa 0,0 l/m 0 min 0 min 0 W/m 31,4 km/h (5 Bft)
23.12.2014 20:54 10,1 C 8,9 C 88 % 1017,3 hPa 0,0 l/m 0 min 0 min 0 W/m 25,1 km/h (4 Bft)
23.12.2014 20:56 10,1 C 8,9 C 88 % 1017,4 hPa 0,0 l/m 0 min 0 min 0 W/m 35,6 km/h (5 Bft)
23.12.2014 20:58 10,1 C 8,9 C 88 % 1017,4 hPa 0,0 l/m 0 min 0 min 0 W/m 39,7 km/h (6 Bft)
23.12.2014 21:00 10,1 C 8,9 C 88 % 1017,5 hPa 0,0 l/m 0 min 0 min 0 W/m 33,5 km/h (5 Bft)
23.12.2014 21:02 10,1 C 8,9 C 88 % 1017,6 hPa 0,0 l/m 0 min 0 min 0 W/m 35,6 km/h (5 Bft)
23.12.2014 21:04 10,1 C 8,9 C 88 % 1017,4 hPa 0,0 l/m 0 min 0 min 0 W/m 27,2 km/h (4 Bft)
23.12.2014 21:06 10,1 C 8,9 C 88 % 1017,4 hPa 0,0 l/m 0 min 0 min 0 W/m 27,2 km/h (4 Bft)
23.12.2014 21:08 10,1 C 8,9 C 88 % 1017,4 hPa 0,0 l/m 0 min 0 min 0 W/m 18,8 km/h (3 Bft)
23.12.2014 21:10 10,1 C 8,9 C 88 % 1017,4 hPa 0,0 l/m 0 min 0 min 0 W/m 23,0 km/h (4 Bft)
23.12.2014 21:12 10,1 C 8,9 C 88 % 1017,3 hPa 0,0 l/m 0 min 0 min 0 W/m 29,3 km/h (5 Bft)
23.12.2014 21:14 10,1 C 8,9 C 88 % 1017,3 hPa 0,0 l/m 0 min 0 min 0 W/m 23,0 km/h (4 Bft)
23.12.2014 21:16 10,1 C 8,9 C 88 % 1017,3 hPa 0,0 l/m 0 min 0 min 0 W/m 37,7 km/h (5 Bft)
23.12.2014 21:18 10,0 C 8,9 C 88 % 1017,4 hPa 0,0 l/m 0 min 0 min 0 W/m 31,4 km/h (5 Bft)
23.12.2014 21:20 10,0 C 8,9 C 88 % 1017,4 hPa 0,0 l/m 0 min 0 min 0 W/m 37,7 km/h (5 Bft)
23.12.2014 21:22 10,0 C 8,9 C 88 % 1017,4 hPa 0,0 l/m 0 min 0 min 0 W/m 31,4 km/h (5 Bft)
23.12.2014 21:24 10,0 C 8,9 C 88 % 1017,4 hPa 0,0 l/m 0 min 0 min 0 W/m 23,0 km/h (4 Bft)
23.12.2014 21:26 10,0 C 8,9 C 88 % 1017,4 hPa 0,0 l/m 0 min 0 min 0 W/m 18,8 km/h (3 Bft)
23.12.2014 21:28 10,0 C 8,9 C 88 % 1017,2 hPa 0,0 l/m 0 min 0 min 0 W/m 20,9 km/h (4 Bft)
23.12.2014 21:30 10,0 C 8,9 C 88 % 1017,4 hPa 0,0 l/m 0 min 0 min 0 W/m 37,7 km/h (5 Bft)
23.12.2014 21:32 9,9 C 8,9 C 88 % 1017,3 hPa 0,0 l/m 0 min 0 min 0 W/m 39,7 km/h (6 Bft)
23.12.2014 21:34 9,9 C 8,9 C 88 % 1017,3 hPa 0,0 l/m 0 min 0 min 0 W/m 39,7 km/h (6 Bft)
23.12.2014 21:36 9,9 C 8,9 C 88 % 1017,4 hPa 0,0 l/m 0 min 0 min 0 W/m 29,3 km/h (5 Bft)
23.12.2014 21:38 9,9 C 8,9 C 88 % 1017,5 hPa 0,0 l/m 0 min 0 min 0 W/m 20,9 km/h (4 Bft)
23.12.2014 21:40 9,9 C 8,9 C 88 % 1017,5 hPa 0,0 l/m 0 min 0 min 0 W/m 29,3 km/h (5 Bft)
23.12.2014 21:42 9,9 C 8,9 C 88 % 1017,4 hPa 0,0 l/m 0 min 0 min 0 W/m 31,4 km/h (5 Bft)
23.12.2014 21:44 9,9 C 8,9 C 88 % 1017,5 hPa 0,0 l/m 0 min 0 min 0 W/m 25,1 km/h (4 Bft)
23.12.2014 21:46 9,9 C 8,9 C 88 % 1017,5 hPa 0,0 l/m 0 min 0 min 0 W/m 29,3 km/h (5 Bft)
23.12.2014 21:48 9,9 C 8,9 C 88 % 1017,4 hPa 0,0 l/m 0 min 0 min 0 W/m 18,8 km/h (3 Bft)
23.12.2014 21:50 9,9 C 8,9 C 88 % 1017,5 hPa 0,0 l/m 0 min 0 min 0 W/m 37,7 km/h (5 Bft)
23.12.2014 21:52 9,9 C 8,9 C 88 % 1017,4 hPa 0,0 l/m 0 min 0 min 0 W/m 35,6 km/h (5 Bft)
23.12.2014 21:54 9,9 C 8,9 C 88 % 1017,4 hPa 0,0 l/m 0 min 0 min 0 W/m 35,6 km/h (5 Bft)
23.12.2014 21:56 9,9 C 8,9 C 88 % 1017,5 hPa 0,0 l/m 0 min 0 min 0 W/m 33,5 km/h (5 Bft)
23.12.2014 21:58 9,9 C 8,9 C 88 % 1017,3 hPa 0,0 l/m 0 min 0 min 0 W/m 29,3 km/h (5 Bft)
23.12.2014 22:00 9,9 C 8,9 C 88 % 1017,5 hPa 0,0 l/m 0 min 0 min 0 W/m 35,6 km/h (5 Bft)
23.12.2014 22:02 9,9 C 8,9 C 88 % 1017,4 hPa 0,0 l/m 0 min 0 min 0 W/m 25,1 km/h (4 Bft)
23.12.2014 22:04 9,9 C 8,9 C 88 % 1017,4 hPa 0,0 l/m 0 min 0 min 0 W/m 25,1 km/h (4 Bft)
23.12.2014 22:06 9,9 C 8,9 C 88 % 1017,4 hPa 0,0 l/m 0 min 0 min 0 W/m 23,0 km/h (4 Bft)
23.12.2014 22:08 9,9 C 8,9 C 88 % 1017,5 hPa 0,0 l/m 0 min 0 min 0 W/m 35,6 km/h (5 Bft)
23.12.2014 22:10 9,9 C 8,9 C 87 % 1017,4 hPa 0,0 l/m 0 min 0 min 0 W/m 27,2 km/h (4 Bft)
23.12.2014 22:12 9,9 C 8,9 C 87 % 1017,4 hPa 0,0 l/m 0 min 0 min 0 W/m 31,4 km/h (5 Bft)
23.12.2014 22:14 9,9 C 8,9 C 87 % 1017,4 hPa 0,0 l/m 0 min 0 min 0 W/m 25,1 km/h (4 Bft)
23.12.2014 22:16 9,9 C 8,9 C 87 % 1017,4 hPa 0,0 l/m 0 min 0 min 0 W/m 23,0 km/h (4 Bft)
23.12.2014 22:18 9,9 C 8,9 C 87 % 1017,3 hPa 0,0 l/m 0 min 0 min 0 W/m 33,5 km/h (5 Bft)
23.12.2014 22:20 9,9 C 8,9 C 87 % 1017,3 hPa 0,0 l/m 0 min 0 min 0 W/m 41,8 km/h (6 Bft)
23.12.2014 22:22 9,9 C 8,9 C 87 % 1017,2 hPa 0,0 l/m 0 min 0 min 0 W/m 37,7 km/h (5 Bft)
23.12.2014 22:24 9,9 C 8,9 C 86 % 1017,2 hPa 0,0 l/m 0 min 0 min 0 W/m 27,2 km/h (4 Bft)
23.12.2014 22:26 9,9 C 8,9 C 87 % 1017,2 hPa 0,0 l/m 0 min 0 min 0 W/m 23,0 km/h (4 Bft)
23.12.2014 22:28 9,9 C 8,9 C 86 % 1017,2 hPa 0,0 l/m 0 min 0 min 0 W/m 29,3 km/h (5 Bft)
23.12.2014 22:30 9,9 C 8,9 C 86 % 1017,1 hPa 0,0 l/m 0 min 0 min 0 W/m 25,1 km/h (4 Bft)
23.12.2014 22:32 9,9 C 8,9 C 86 % 1017,1 hPa 0,0 l/m 0 min 0 min 0 W/m 33,5 km/h (5 Bft)
23.12.2014 22:34 9,9 C 8,9 C 86 % 1017,2 hPa 0,0 l/m 0 min 0 min 0 W/m 23,0 km/h (4 Bft)
23.12.2014 22:36 9,9 C 8,3 C 86 % 1017,1 hPa 0,0 l/m 0 min 0 min 0 W/m 23,0 km/h (4 Bft)
23.12.2014 22:38 9,9 C 8,3 C 86 % 1017,1 hPa 0,0 l/m 0 min 0 min 0 W/m 31,4 km/h (5 Bft)
23.12.2014 22:40 9,9 C 8,3 C 86 % 1017,1 hPa 0,0 l/m 0 min 0 min 0 W/m 33,5 km/h (5 Bft)
23.12.2014 22:42 9,9 C 8,3 C 86 % 1017,1 hPa 0,0 l/m 0 min 0 min 0 W/m 27,2 km/h (4 Bft)
23.12.2014 22:44 9,9 C 8,3 C 86 % 1017,2 hPa 0,0 l/m 0 min 0 min 0 W/m 25,1 km/h (4 Bft)
23.12.2014 22:46 9,9 C 8,3 C 86 % 1017,1 hPa 0,0 l/m 0 min 0 min 0 W/m 23,0 km/h (4 Bft)
23.12.2014 22:48 9,9 C 8,3 C 86 % 1017,1 hPa 0,0 l/m 0 min 0 min 0 W/m 23,0 km/h (4 Bft)
23.12.2014 22:50 9,8 C 8,3 C 86 % 1017,2 hPa 0,0 l/m 0 min 0 min 0 W/m 25,1 km/h (4 Bft)
23.12.2014 22:52 9,8 C 8,3 C 86 % 1017,1 hPa 0,0 l/m 0 min 0 min 0 W/m 25,1 km/h (4 Bft)
23.12.2014 22:54 9,8 C 8,3 C 86 % 1017,0 hPa 0,0 l/m 0 min 0 min 0 W/m 27,2 km/h (4 Bft)
23.12.2014 22:56 9,8 C 8,3 C 86 % 1017,1 hPa 0,0 l/m 0 min 0 min 0 W/m 27,2 km/h (4 Bft)
23.12.2014 22:58 9,8 C 8,3 C 86 % 1017,1 hPa 0,0 l/m 0 min 0 min 0 W/m 25,1 km/h (4 Bft)
23.12.2014 23:00 9,8 C 8,3 C 86 % 1017,1 hPa 0,0 l/m 0 min 0 min 0 W/m 29,3 km/h (5 Bft)
23.12.2014 23:02 9,8 C 8,3 C 86 % 1017,1 hPa 0,0 l/m 0 min 0 min 0 W/m 33,5 km/h (5 Bft)
23.12.2014 23:04 9,8 C 8,3 C 85 % 1017,2 hPa 0,0 l/m 0 min 0 min 0 W/m 33,5 km/h (5 Bft)
23.12.2014 23:06 9,8 C 8,3 C 85 % 1017,2 hPa 0,0 l/m 0 min 0 min 0 W/m 25,1 km/h (4 Bft)
23.12.2014 23:08 9,8 C 8,3 C 85 % 1017,2 hPa 0,0 l/m 0 min 0 min 0 W/m 27,2 km/h (4 Bft)
23.12.2014 23:10 9,8 C 8,3 C 85 % 1017,2 hPa 0,0 l/m 0 min 0 min 0 W/m 33,5 km/h (5 Bft)
23.12.2014 23:12 9,8 C 8,3 C 85 % 1017,2 hPa 0,0 l/m 0 min 0 min 0 W/m 25,1 km/h (4 Bft)
23.12.2014 23:14 9,8 C 8,3 C 85 % 1017,1 hPa 0,0 l/m 0 min 0 min 0 W/m 29,3 km/h (5 Bft)
23.12.2014 23:16 9,7 C 8,3 C 85 % 1017,2 hPa 0,0 l/m 0 min 0 min 0 W/m 33,5 km/h (5 Bft)
23.12.2014 23:18 9,7 C 8,3 C 85 % 1017,1 hPa 0,0 l/m 0 min 0 min 0 W/m 20,9 km/h (4 Bft)
23.12.2014 23:20 9,7 C 8,3 C 85 % 1017,1 hPa 0,0 l/m 0 min 0 min 0 W/m 31,4 km/h (5 Bft)
23.12.2014 23:22 9,7 C 8,3 C 85 % 1017,1 hPa 0,0 l/m 0 min 0 min 0 W/m 35,6 km/h (5 Bft)
23.12.2014 23:24 9,7 C 8,3 C 85 % 1017,2 hPa 0,0 l/m 0 min 0 min 0 W/m 29,3 km/h (5 Bft)
23.12.2014 23:26 9,7 C 8,3 C 85 % 1017,3 hPa 0,0 l/m 0 min 0 min 0 W/m 31,4 km/h (5 Bft)
23.12.2014 23:28 9,7 C 8,3 C 85 % 1017,2 hPa 0,0 l/m 0 min 0 min 0 W/m 27,2 km/h (4 Bft)
23.12.2014 23:30 9,7 C 8,3 C 85 % 1017,2 hPa 0,0 l/m 0 min 0 min 0 W/m 23,0 km/h (4 Bft)
23.12.2014 23:32 9,7 C 8,3 C 85 % 1017,2 hPa 0,0 l/m 0 min 0 min 0 W/m 25,1 km/h (4 Bft)
23.12.2014 23:34 9,7 C 8,3 C 85 % 1017,1 hPa 0,0 l/m 0 min 0 min 0 W/m 29,3 km/h (5 Bft)
23.12.2014 23:36 9,7 C 8,3 C 85 % 1017,2 hPa 0,0 l/m 0 min 0 min 0 W/m 27,2 km/h (4 Bft)
23.12.2014 23:38 9,7 C 8,3 C 85 % 1017,1 hPa 0,0 l/m 0 min 0 min 0 W/m 29,3 km/h (5 Bft)
23.12.2014 23:40 9,7 C 8,3 C 85 % 1017,1 hPa 0,0 l/m 0 min 0 min 0 W/m 33,5 km/h (5 Bft)
23.12.2014 23:42 9,7 C 8,3 C 85 % 1017,1 hPa 0,0 l/m 0 min 0 min 0 W/m 31,4 km/h (5 Bft)
23.12.2014 23:44 9,7 C 8,3 C 85 % 1017,1 hPa 0,0 l/m 0 min 0 min 0 W/m 33,5 km/h (5 Bft)
23.12.2014 23:46 9,7 C 8,3 C 84 % 1017,1 hPa 0,0 l/m 0 min 0 min 0 W/m 39,7 km/h (6 Bft)
23.12.2014 23:48 9,7 C 8,3 C 84 % 1017,1 hPa 0,0 l/m 0 min 0 min 0 W/m 35,6 km/h (5 Bft)
23.12.2014 23:50 9,7 C 8,3 C 84 % 1017,1 hPa 0,0 l/m 0 min 0 min 0 W/m 27,2 km/h (4 Bft)
23.12.2014 23:52 9,7 C 8,3 C 84 % 1017,1 hPa 0,0 l/m 0 min 0 min 0 W/m 29,3 km/h (5 Bft)
23.12.2014 23:54 9,7 C 8,3 C 84 % 1017,1 hPa 0,0 l/m 0 min 0 min 0 W/m 39,7 km/h (6 Bft)
23.12.2014 23:56 9,7 C 8,3 C 84 % 1017,1 hPa 0,0 l/m 0 min 0 min 0 W/m 33,5 km/h (5 Bft)
23.12.2014 23:58 9,7 C 8,3 C 84 % 1017,1 hPa 0,0 l/m 0 min 0 min 0 W/m 25,1 km/h (4 Bft)
_ Min-Zeit 23:16 09:32 00:54 22:54 - - - - 17:30
Minimum _ 9,7 C 8,3 C 84 % 1017,0 hPa - - - - 12,6 km/h (3 Bft)
_ Max-Zeit 00:00 11:50 17:06 12:18 00:00 00:00 09:22 12:44 00:28
Maximum _ 11,7 C 10,6 C 94 % 1019,0 hPa 0,0 l/m 0 min 2 min 117 W/m 64,4 km/h
W-SW (8 Bft)
Durchschnitt _ 10,8 C 9,4 C 88 % 1018,1 hPa #0,0 l/m #0 min. #16 min. 40 W/m 34,3 km/h (5 Bft)
© 2015 W. Hausmann